Wetterdaten: Donnerstag, 30.03.2023
Datum Zeit Temp. Aussen Temp. o. S. Temp +5cm Feuchte Auss Luftdruck Regen Sonnenschein Regendauer Solar Windben Empfang
30.03.2023 00:00 12,4 C 11,7 C 7,8 C 88 % 1008,8 hPa 0,0 l/m 0 min 0 min 0 W/m 12,9 km/h (3 Bft) 97,87 %
30.03.2023 00:02 12,3 C 11,7 C 7,8 C 88 % 1008,8 hPa 0,0 l/m 0 min 0 min 0 W/m 12,9 km/h (3 Bft) 100,00 %
30.03.2023 00:04 12,3 C 11,7 C 7,8 C 88 % 1008,7 hPa 0,0 l/m 0 min 0 min 0 W/m 12,9 km/h (3 Bft) 100,00 %
30.03.2023 00:07 12,3 C 11,7 C 7,8 C 88 % 1008,7 hPa 0,0 l/m 0 min 0 min 0 W/m 16,1 km/h (3 Bft) 95,51 %
30.03.2023 00:10 12,3 C 11,7 C 7,8 C 88 % 1008,7 hPa 0,0 l/m 0 min 0 min 0 W/m 12,9 km/h (3 Bft) 93,10 %
30.03.2023 00:12 12,3 C 11,7 C 7,8 C 88 % 1008,7 hPa 0,0 l/m 0 min 0 min 0 W/m 6,4 km/h (2 Bft) 93,62 %
30.03.2023 00:14 12,3 C 11,7 C 7,8 C 88 % 1008,7 hPa 0,0 l/m 0 min 0 min 0 W/m 12,9 km/h (3 Bft) 95,74 %
30.03.2023 00:16 12,3 C 11,7 C 7,8 C 88 % 1008,7 hPa 0,0 l/m 0 min 0 min 0 W/m 12,9 km/h (3 Bft) 93,48 %
30.03.2023 00:18 12,3 C 11,7 C 7,8 C 87 % 1008,7 hPa 0,0 l/m 0 min 0 min 0 W/m 12,9 km/h (3 Bft) 93,62 %
30.03.2023 00:20 12,3 C 11,7 C 7,8 C 87 % 1008,7 hPa 0,0 l/m 0 min 0 min 0 W/m 9,7 km/h (2 Bft) 91,67 %
30.03.2023 00:22 12,3 C 11,7 C 7,8 C 87 % 1008,6 hPa 0,0 l/m 0 min 0 min 0 W/m 12,9 km/h (3 Bft) 91,49 %
30.03.2023 00:24 12,3 C 11,7 C 7,8 C 87 % 1008,6 hPa 0,0 l/m 0 min 0 min 0 W/m 9,7 km/h (2 Bft) 93,48 %
30.03.2023 00:26 12,3 C 11,7 C 7,8 C 87 % 1008,5 hPa 0,0 l/m 0 min 0 min 0 W/m 12,9 km/h (3 Bft) 91,49 %
30.03.2023 00:28 12,3 C 11,1 C 7,8 C 87 % 1008,5 hPa 0,0 l/m 0 min 0 min 0 W/m 12,9 km/h (3 Bft) 91,49 %
30.03.2023 00:30 12,3 C 11,1 C 7,8 C 87 % 1008,5 hPa 0,0 l/m 0 min 0 min 0 W/m 12,9 km/h (3 Bft) 93,62 %
30.03.2023 00:32 12,2 C 11,1 C 7,8 C 87 % 1008,5 hPa 0,0 l/m 0 min 0 min 0 W/m 9,7 km/h (2 Bft) 93,62 %
30.03.2023 00:34 12,2 C 11,1 C 7,8 C 87 % 1008,4 hPa 0,0 l/m 0 min 0 min 0 W/m 6,4 km/h (2 Bft) 93,62 %
30.03.2023 00:36 12,2 C 11,1 C 7,8 C 87 % 1008,4 hPa 0,0 l/m 0 min 0 min 0 W/m 6,4 km/h (2 Bft) 89,58 %
30.03.2023 00:38 12,2 C 11,1 C 7,8 C 87 % 1008,5 hPa 0,0 l/m 0 min 0 min 0 W/m 12,9 km/h (3 Bft) 93,62 %
30.03.2023 00:40 12,2 C 11,1 C 7,8 C 87 % 1008,5 hPa 0,0 l/m 0 min 0 min 0 W/m 16,1 km/h (3 Bft) 91,49 %
30.03.2023 00:42 12,2 C 11,1 C 7,8 C 87 % 1008,5 hPa 0,0 l/m 0 min 0 min 0 W/m 6,4 km/h (2 Bft) 92,86 %
30.03.2023 00:44 12,1 C 11,1 C 7,2 C 87 % 1008,4 hPa 0,0 l/m 0 min 0 min 0 W/m 19,3 km/h (3 Bft) 93,62 %
30.03.2023 00:46 12,1 C 11,1 C 7,2 C 87 % 1008,4 hPa 0,0 l/m 0 min 0 min 0 W/m 12,9 km/h (3 Bft) 95,74 %
30.03.2023 00:48 12,1 C 11,1 C 7,2 C 87 % 1008,4 hPa 0,0 l/m 0 min 0 min 0 W/m 12,9 km/h (3 Bft) 95,74 %
30.03.2023 00:50 12,1 C 11,1 C 7,2 C 87 % 1008,4 hPa 0,0 l/m 0 min 0 min 0 W/m 9,7 km/h (2 Bft) 97,87 %
30.03.2023 00:52 12,1 C 11,1 C 7,2 C 87 % 1008,4 hPa 0,0 l/m 0 min 0 min 0 W/m 12,9 km/h (3 Bft) 100,00 %
30.03.2023 00:54 12,1 C 11,1 C 7,2 C 87 % 1008,4 hPa 0,0 l/m 0 min 0 min 0 W/m 16,1 km/h (3 Bft) 97,87 %
30.03.2023 00:56 12,1 C 11,1 C 7,2 C 87 % 1008,4 hPa 0,0 l/m 0 min 0 min 0 W/m 6,4 km/h (2 Bft) 100,00 %
30.03.2023 00:58 12,0 C 11,1 C 7,2 C 87 % 1008,3 hPa 0,0 l/m 0 min 0 min 0 W/m 6,4 km/h (2 Bft) 97,87 %
30.03.2023 01:00 12,0 C 11,1 C 7,2 C 87 % 1008,4 hPa 0,0 l/m 0 min 0 min 0 W/m 9,7 km/h (2 Bft) 100,00 %
30.03.2023 01:02 12,0 C 11,1 C 7,2 C 87 % 1008,3 hPa 0,0 l/m 0 min 0 min 0 W/m 9,7 km/h (2 Bft) 95,74 %
30.03.2023 01:04 12,0 C 11,1 C 7,2 C 87 % 1008,3 hPa 0,0 l/m 0 min 0 min 0 W/m 12,9 km/h (3 Bft) 100,00 %
30.03.2023 01:06 11,9 C 11,1 C 7,2 C 87 % 1008,2 hPa 0,0 l/m 0 min 0 min 0 W/m 12,9 km/h (3 Bft) 100,00 %
30.03.2023 01:08 11,9 C 11,1 C 7,2 C 87 % 1008,2 hPa 0,0 l/m 0 min 0 min 0 W/m 6,4 km/h (2 Bft) 100,00 %
30.03.2023 01:10 11,9 C 11,1 C 7,2 C 87 % 1008,1 hPa 0,0 l/m 0 min 0 min 0 W/m 6,4 km/h (2 Bft) 100,00 %
30.03.2023 01:12 11,9 C 11,1 C 7,2 C 87 % 1008,2 hPa 0,0 l/m 0 min 0 min 0 W/m 12,9 km/h (3 Bft) 97,87 %
30.03.2023 01:14 11,9 C 11,1 C 7,2 C 87 % 1008,1 hPa 0,0 l/m 0 min 0 min 0 W/m 9,7 km/h (2 Bft) 100,00 %
30.03.2023 01:16 11,9 C 11,1 C 7,2 C 87 % 1008,1 hPa 0,0 l/m 0 min 0 min 0 W/m 9,7 km/h (2 Bft) 100,00 %
30.03.2023 01:18 11,9 C 11,1 C 7,2 C 87 % 1008,1 hPa 0,0 l/m 0 min 0 min 0 W/m 12,9 km/h (3 Bft) 100,00 %
30.03.2023 01:20 11,8 C 11,1 C 7,2 C 87 % 1008,1 hPa 0,0 l/m 0 min 0 min 0 W/m 9,7 km/h (2 Bft) 100,00 %
30.03.2023 01:22 11,8 C 11,1 C 7,2 C 87 % 1008,1 hPa 0,0 l/m 0 min 0 min 0 W/m 6,4 km/h (2 Bft) 97,87 %
30.03.2023 01:24 11,8 C 11,1 C 7,2 C 87 % 1008,1 hPa 0,0 l/m 0 min 0 min 0 W/m 9,7 km/h (2 Bft) 100,00 %
30.03.2023 01:26 11,8 C 11,1 C 7,2 C 87 % 1008,1 hPa 0,0 l/m 0 min 0 min 0 W/m 6,4 km/h (2 Bft) 100,00 %
30.03.2023 01:28 11,8 C 11,1 C 7,2 C 87 % 1008,1 hPa 0,0 l/m 0 min 0 min 0 W/m 6,4 km/h (2 Bft) 100,00 %
30.03.2023 01:30 11,8 C 11,1 C 7,2 C 86 % 1008,1 hPa 0,0 l/m 0 min 0 min 0 W/m 9,7 km/h (2 Bft) 97,87 %
30.03.2023 01:32 11,8 C 11,1 C 7,2 C 86 % 1008,0 hPa 0,0 l/m 0 min 0 min 0 W/m 12,9 km/h (3 Bft) 97,83 %
30.03.2023 01:34 11,8 C 11,1 C 7,2 C 86 % 1008,0 hPa 0,0 l/m 0 min 0 min 0 W/m 6,4 km/h (2 Bft) 100,00 %
30.03.2023 01:36 11,8 C 11,1 C 7,2 C 86 % 1008,1 hPa 0,0 l/m 0 min 0 min 0 W/m 6,4 km/h (2 Bft) 100,00 %
30.03.2023 01:38 11,8 C 11,1 C 7,2 C 86 % 1008,1 hPa 0,0 l/m 0 min 0 min 0 W/m 6,4 km/h (2 Bft) 100,00 %
30.03.2023 01:40 11,7 C 11,1 C 7,2 C 86 % 1008,1 hPa 0,0 l/m 0 min 0 min 0 W/m 6,4 km/h (2 Bft) 100,00 %
30.03.2023 01:42 11,7 C 11,1 C 7,2 C 86 % 1008,0 hPa 0,0 l/m 0 min 0 min 0 W/m 12,9 km/h (3 Bft) 100,00 %
30.03.2023 01:44 11,7 C 11,1 C 7,2 C 86 % 1008,1 hPa 0,0 l/m 0 min 0 min 0 W/m 6,4 km/h (2 Bft) 100,00 %
30.03.2023 01:46 11,7 C 11,1 C 7,2 C 86 % 1008,0 hPa 0,0 l/m 0 min 0 min 0 W/m 6,4 km/h (2 Bft) 100,00 %
30.03.2023 01:48 11,7 C 11,1 C 7,2 C 86 % 1007,9 hPa 0,0 l/m 0 min 0 min 0 W/m 6,4 km/h (2 Bft) 100,00 %
30.03.2023 01:50 11,7 C 11,1 C 7,2 C 86 % 1008,0 hPa 0,0 l/m 0 min 0 min 0 W/m 6,4 km/h (2 Bft) 100,00 %
30.03.2023 01:52 11,7 C 11,1 C 7,2 C 86 % 1007,9 hPa 0,0 l/m 0 min 0 min 0 W/m 6,4 km/h (2 Bft) 100,00 %
30.03.2023 01:54 11,7 C 11,1 C 7,2 C 86 % 1007,8 hPa 0,0 l/m 0 min 0 min 0 W/m 12,9 km/h (3 Bft) 95,74 %
30.03.2023 01:56 11,7 C 11,1 C 7,2 C 86 % 1007,8 hPa 0,0 l/m 0 min 0 min 0 W/m 6,4 km/h (2 Bft) 98,25 %
30.03.2023 01:58 11,7 C 11,1 C 7,2 C 86 % 1007,8 hPa 0,0 l/m 0 min 0 min 0 W/m 6,4 km/h (2 Bft) 100,00 %
30.03.2023 02:00 11,7 C 11,1 C 7,2 C 86 % 1007,6 hPa 0,0 l/m 0 min 0 min 0 W/m 12,9 km/h (3 Bft) 100,00 %
30.03.2023 02:02 11,7 C 11,1 C 7,2 C 86 % 1007,6 hPa 0,0 l/m 0 min 0 min 0 W/m 6,4 km/h (2 Bft) 98,11 %
30.03.2023 02:04 11,7 C 11,1 C 7,2 C 86 % 1007,7 hPa 0,0 l/m 0 min 0 min 0 W/m 12,9 km/h (3 Bft) 96,00 %
30.03.2023 02:06 11,7 C 11,1 C 7,2 C 86 % 1007,6 hPa 0,0 l/m 0 min 0 min 0 W/m 12,9 km/h (3 Bft) 100,00 %
30.03.2023 02:08 11,7 C 11,1 C 7,2 C 85 % 1007,6 hPa 0,0 l/m 0 min 0 min 0 W/m 12,9 km/h (3 Bft) 100,00 %
30.03.2023 02:10 11,7 C 11,1 C 7,2 C 85 % 1007,6 hPa 0,0 l/m 0 min 0 min 0 W/m 6,4 km/h (2 Bft) 97,14 %
30.03.2023 02:14 11,7 C 11,1 C 7,2 C 85 % 1007,5 hPa 0,0 l/m 0 min 0 min 0 W/m 9,7 km/h (2 Bft) 91,67 %
30.03.2023 02:16 11,7 C 11,1 C 7,2 C 85 % 1007,4 hPa 0,0 l/m 0 min 0 min 0 W/m 9,7 km/h (2 Bft) 97,83 %
30.03.2023 02:18 11,7 C 11,1 C 7,2 C 85 % 1007,3 hPa 0,0 l/m 0 min 0 min 0 W/m 12,9 km/h (3 Bft) 93,62 %
30.03.2023 02:20 11,7 C 11,1 C 7,2 C 85 % 1007,4 hPa 0,0 l/m 0 min 0 min 0 W/m 12,9 km/h (3 Bft) 100,00 %
30.03.2023 02:22 11,7 C 11,1 C 7,2 C 85 % 1007,5 hPa 0,0 l/m 0 min 0 min 0 W/m 6,4 km/h (2 Bft) 100,00 %
30.03.2023 02:24 11,7 C 10,6 C 7,2 C 85 % 1007,4 hPa 0,0 l/m 0 min 0 min 0 W/m 16,1 km/h (3 Bft) 95,74 %
30.03.2023 02:26 11,7 C 10,6 C 7,2 C 85 % 1007,5 hPa 0,0 l/m 0 min 0 min 0 W/m 6,4 km/h (2 Bft) 100,00 %
30.03.2023 02:28 11,7 C 10,6 C 7,2 C 85 % 1007,5 hPa 0,0 l/m 0 min 0 min 0 W/m 6,4 km/h (2 Bft) 98,08 %
30.03.2023 02:30 11,7 C 10,6 C 7,2 C 85 % 1007,5 hPa 0,0 l/m 0 min 0 min 0 W/m 12,9 km/h (3 Bft) 97,87 %
30.03.2023 02:32 11,7 C 10,6 C 7,2 C 85 % 1007,5 hPa 0,0 l/m 0 min 0 min 0 W/m 6,4 km/h (2 Bft) 93,62 %
30.03.2023 02:34 11,7 C 10,6 C 7,2 C 85 % 1007,5 hPa 0,0 l/m 0 min 0 min 0 W/m 6,4 km/h (2 Bft) 97,87 %
30.03.2023 02:36 11,6 C 10,6 C 7,2 C 85 % 1007,5 hPa 0,0 l/m 0 min 0 min 0 W/m 12,9 km/h (3 Bft) 97,67 %
30.03.2023 02:38 11,6 C 10,6 C 7,2 C 85 % 1007,6 hPa 0,0 l/m 0 min 0 min 0 W/m 9,7 km/h (2 Bft) 100,00 %
30.03.2023 02:40 11,6 C 10,6 C 7,2 C 85 % 1007,6 hPa 0,0 l/m 0 min 0 min 0 W/m 6,4 km/h (2 Bft) 100,00 %
30.03.2023 02:42 11,6 C 10,6 C 7,2 C 85 % 1007,5 hPa 0,0 l/m 0 min 0 min 0 W/m 12,9 km/h (3 Bft) 95,74 %
30.03.2023 02:44 11,6 C 10,6 C 7,2 C 85 % 1007,4 hPa 0,0 l/m 0 min 0 min 0 W/m 12,9 km/h (3 Bft) 100,00 %
30.03.2023 02:46 11,6 C 10,6 C 7,2 C 85 % 1007,4 hPa 0,0 l/m 0 min 0 min 0 W/m 12,9 km/h (3 Bft) 100,00 %
30.03.2023 02:48 11,6 C 10,6 C 7,2 C 85 % 1007,3 hPa 0,0 l/m 0 min 0 min 0 W/m 6,4 km/h (2 Bft) 98,11 %
30.03.2023 02:50 11,6 C 10,6 C 7,2 C 85 % 1007,3 hPa 0,0 l/m 0 min 0 min 0 W/m 6,4 km/h (2 Bft) 97,87 %
30.03.2023 02:52 11,6 C 10,6 C 7,2 C 85 % 1007,3 hPa 0,0 l/m 0 min 0 min 0 W/m 12,9 km/h (3 Bft) 97,56 %
30.03.2023 02:54 11,5 C 10,6 C 7,2 C 85 % 1007,2 hPa 0,0 l/m 0 min 0 min 0 W/m 12,9 km/h (3 Bft) 94,23 %
30.03.2023 02:56 11,5 C 10,6 C 7,2 C 85 % 1007,2 hPa 0,0 l/m 0 min 0 min 0 W/m 12,9 km/h (3 Bft) 89,36 %
30.03.2023 02:58 11,5 C 10,6 C 7,2 C 85 % 1007,1 hPa 0,0 l/m 0 min 0 min 0 W/m 12,9 km/h (3 Bft) 95,74 %
30.03.2023 03:00 11,5 C 10,6 C 7,2 C 85 % 1007,0 hPa 0,0 l/m 0 min 0 min 0 W/m 6,4 km/h (2 Bft) 95,74 %
30.03.2023 03:02 11,5 C 10,6 C 7,2 C 85 % 1007,0 hPa 0,0 l/m 0 min 0 min 0 W/m 12,9 km/h (3 Bft) 91,49 %
30.03.2023 03:04 11,5 C 10,6 C 7,2 C 85 % 1007,0 hPa 0,0 l/m 0 min 0 min 0 W/m 6,4 km/h (2 Bft) 95,74 %
30.03.2023 03:06 11,5 C 10,6 C 7,2 C 85 % 1007,0 hPa 0,0 l/m 0 min 0 min 0 W/m 6,4 km/h (2 Bft) 95,65 %
30.03.2023 03:08 11,5 C 11,1 C 7,2 C 85 % 1007,0 hPa 0,0 l/m 0 min 0 min 0 W/m 6,4 km/h (2 Bft) 95,74 %
30.03.2023 03:10 11,5 C 11,1 C 7,2 C 85 % 1007,1 hPa 0,0 l/m 0 min 0 min 0 W/m 6,4 km/h (2 Bft) 95,74 %
30.03.2023 03:12 11,5 C 11,1 C 7,2 C 85 % 1007,1 hPa 0,0 l/m 0 min 0 min 0 W/m 6,4 km/h (2 Bft) 93,62 %
30.03.2023 03:14 11,5 C 11,1 C 7,2 C 85 % 1007,1 hPa 0,0 l/m 0 min 0 min 0 W/m 6,4 km/h (2 Bft) 95,74 %
30.03.2023 03:16 11,5 C 11,1 C 7,2 C 84 % 1007,0 hPa 0,0 l/m 0 min 0 min 0 W/m 12,9 km/h (3 Bft) 93,62 %
30.03.2023 03:18 11,5 C 11,1 C 7,2 C 84 % 1007,0 hPa 0,0 l/m 0 min 0 min 0 W/m 12,9 km/h (3 Bft) 95,74 %
30.03.2023 03:20 11,6 C 11,1 C 7,2 C 84 % 1007,0 hPa 0,0 l/m 0 min 0 min 0 W/m 6,4 km/h (2 Bft) 95,65 %
30.03.2023 03:22 11,6 C 11,1 C 7,2 C 84 % 1007,0 hPa 0,0 l/m 0 min 0 min 0 W/m 12,9 km/h (3 Bft) 95,74 %
30.03.2023 03:24 11,6 C 11,1 C 7,2 C 84 % 1007,0 hPa 0,0 l/m 0 min 0 min 0 W/m 6,4 km/h (2 Bft) 93,62 %
30.03.2023 03:26 11,6 C 11,1 C 7,2 C 84 % 1007,0 hPa 0,0 l/m 0 min 0 min 0 W/m 6,4 km/h (2 Bft) 93,62 %
30.03.2023 03:28 11,6 C 11,1 C 7,2 C 84 % 1007,0 hPa 0,0 l/m 0 min 0 min 0 W/m 6,4 km/h (2 Bft) 95,74 %
30.03.2023 03:30 11,6 C 11,1 C 7,2 C 84 % 1007,0 hPa 0,0 l/m 0 min 0 min 0 W/m 6,4 km/h (2 Bft) 95,74 %
30.03.2023 03:32 11,6 C 11,1 C 7,2 C 84 % 1007,0 hPa 0,0 l/m 0 min 0 min 0 W/m 6,4 km/h (2 Bft) 97,83 %
30.03.2023 03:34 11,6 C 11,1 C 7,2 C 84 % 1007,1 hPa 0,0 l/m 0 min 0 min 0 W/m 6,4 km/h (2 Bft) 97,87 %
30.03.2023 03:36 11,6 C 11,1 C 7,2 C 84 % 1007,1 hPa 0,0 l/m 0 min 0 min 0 W/m 3,2 km/h (1 Bft) 97,87 %
30.03.2023 03:38 11,6 C 11,1 C 7,2 C 84 % 1007,1 hPa 0,0 l/m 0 min 0 min 0 W/m 3,2 km/h (1 Bft) 97,87 %
30.03.2023 03:40 11,6 C 11,1 C 7,2 C 84 % 1007,0 hPa 0,0 l/m 0 min 0 min 0 W/m 3,2 km/h (1 Bft) 97,87 %
30.03.2023 03:42 11,7 C 11,1 C 7,2 C 84 % 1007,1 hPa 0,0 l/m 0 min 0 min 0 W/m 3,2 km/h (1 Bft) 97,87 %
30.03.2023 03:44 11,7 C 11,7 C 7,2 C 83 % 1007,1 hPa 0,0 l/m 0 min 0 min 0 W/m 3,2 km/h (1 Bft) 95,74 %
30.03.2023 03:46 11,7 C 11,7 C 7,2 C 83 % 1007,0 hPa 0,0 l/m 0 min 0 min 0 W/m 3,2 km/h (1 Bft) 97,83 %
30.03.2023 03:48 11,7 C 11,7 C 7,2 C 83 % 1007,0 hPa 0,0 l/m 0 min 0 min 0 W/m 3,2 km/h (1 Bft) 100,00 %
30.03.2023 03:50 11,7 C 11,7 C 7,8 C 83 % 1007,0 hPa 0,0 l/m 0 min 0 min 0 W/m 6,4 km/h (2 Bft) 97,83 %
30.03.2023 03:52 11,8 C 11,7 C 7,8 C 83 % 1007,0 hPa 0,0 l/m 0 min 0 min 0 W/m 3,2 km/h (1 Bft) 97,87 %
30.03.2023 03:54 11,8 C 11,7 C 7,8 C 83 % 1007,0 hPa 0,0 l/m 0 min 0 min 0 W/m 3,2 km/h (1 Bft) 100,00 %
30.03.2023 03:56 11,8 C 11,7 C 7,8 C 83 % 1006,9 hPa 0,0 l/m 0 min 0 min 0 W/m 6,4 km/h (2 Bft) 97,83 %
30.03.2023 03:58 11,8 C 11,7 C 7,8 C 83 % 1006,9 hPa 0,0 l/m 0 min 0 min 0 W/m 6,4 km/h (2 Bft) 97,87 %
30.03.2023 04:00 11,9 C 11,7 C 7,8 C 83 % 1006,9 hPa 0,0 l/m 0 min 0 min 0 W/m 12,9 km/h (3 Bft) 97,87 %
30.03.2023 04:02 11,9 C 12,2 C 7,8 C 83 % 1006,9 hPa 0,0 l/m 0 min 0 min 0 W/m 6,4 km/h (2 Bft) 93,62 %
30.03.2023 04:04 11,9 C 12,2 C 7,8 C 83 % 1006,8 hPa 0,0 l/m 0 min 0 min 0 W/m 6,4 km/h (2 Bft) 100,00 %
30.03.2023 04:06 12,0 C 12,2 C 7,8 C 82 % 1006,7 hPa 0,0 l/m 0 min 0 min 0 W/m 3,2 km/h (1 Bft) 96,88 %
30.03.2023 04:08 12,1 C 12,2 C 7,8 C 82 % 1006,7 hPa 0,0 l/m 0 min 0 min 0 W/m 6,4 km/h (2 Bft) 96,67 %
30.03.2023 04:10 12,1 C 12,2 C 7,8 C 82 % 1006,7 hPa 0,0 l/m 0 min 0 min 0 W/m 6,4 km/h (2 Bft) 95,74 %
30.03.2023 04:12 12,2 C 12,2 C 7,8 C 82 % 1006,7 hPa 0,0 l/m 0 min 0 min 0 W/m 12,9 km/h (3 Bft) 97,87 %
30.03.2023 04:14 12,2 C 12,2 C 7,8 C 82 % 1006,8 hPa 0,0 l/m 0 min 0 min 0 W/m 6,4 km/h (2 Bft) 97,87 %
30.03.2023 04:16 12,3 C 12,2 C 7,8 C 82 % 1006,7 hPa 0,0 l/m 0 min 0 min 0 W/m 6,4 km/h (2 Bft) 95,74 %
30.03.2023 04:18 12,3 C 12,2 C 7,8 C 82 % 1006,7 hPa 0,0 l/m 0 min 0 min 0 W/m 6,4 km/h (2 Bft) 97,83 %
30.03.2023 04:20 12,3 C 12,2 C 7,8 C 82 % 1006,7 hPa 0,0 l/m 0 min 0 min 0 W/m 12,9 km/h (3 Bft) 96,30 %
30.03.2023 04:22 12,4 C 12,2 C 7,8 C 81 % 1006,7 hPa 0,0 l/m 0 min 0 min 0 W/m 9,7 km/h (2 Bft) 97,87 %
30.03.2023 04:24 12,4 C 12,2 C 7,8 C 81 % 1006,7 hPa 0,0 l/m 0 min 0 min 0 W/m 9,7 km/h (2 Bft) 97,83 %
30.03.2023 04:26 12,5 C 12,2 C 7,8 C 81 % 1006,7 hPa 0,0 l/m 0 min 0 min 0 W/m 9,7 km/h (2 Bft) 97,87 %
30.03.2023 04:28 12,5 C 12,2 C 7,8 C 81 % 1006,6 hPa 0,0 l/m 0 min 0 min 0 W/m 6,4 km/h (2 Bft) 97,87 %
30.03.2023 04:30 12,6 C 12,2 C 7,8 C 81 % 1006,6 hPa 0,0 l/m 0 min 0 min 0 W/m 9,7 km/h (2 Bft) 97,87 %
30.03.2023 04:32 12,6 C 12,2 C 7,8 C 81 % 1006,5 hPa 0,0 l/m 0 min 0 min 0 W/m 6,4 km/h (2 Bft) 97,87 %
30.03.2023 04:34 12,6 C 12,2 C 7,8 C 81 % 1006,5 hPa 0,0 l/m 0 min 0 min 0 W/m 9,7 km/h (2 Bft) 100,00 %
30.03.2023 04:36 12,6 C 11,7 C 7,8 C 80 % 1006,4 hPa 0,0 l/m 0 min 0 min 0 W/m 6,4 km/h (2 Bft) 97,87 %
30.03.2023 04:38 12,6 C 11,7 C 7,8 C 80 % 1006,5 hPa 0,0 l/m 0 min 0 min 0 W/m 6,4 km/h (2 Bft) 100,00 %
30.03.2023 04:40 12,6 C 11,7 C 7,8 C 80 % 1006,5 hPa 0,0 l/m 0 min 0 min 0 W/m 9,7 km/h (2 Bft) 100,00 %
30.03.2023 04:42 12,7 C 12,2 C 7,8 C 80 % 1006,3 hPa 0,0 l/m 0 min 0 min 0 W/m 6,4 km/h (2 Bft) 100,00 %
30.03.2023 04:44 12,7 C 12,2 C 7,8 C 80 % 1006,4 hPa 0,0 l/m 0 min 0 min 0 W/m 9,7 km/h (2 Bft) 100,00 %
30.03.2023 04:46 12,7 C 12,2 C 7,8 C 80 % 1006,3 hPa 0,0 l/m 0 min 0 min 0 W/m 6,4 km/h (2 Bft) 100,00 %
30.03.2023 04:48 12,8 C 12,2 C 7,8 C 80 % 1006,4 hPa 0,0 l/m 0 min 0 min 0 W/m 9,7 km/h (2 Bft) 100,00 %
30.03.2023 04:50 12,8 C 12,2 C 7,8 C 80 % 1006,4 hPa 0,0 l/m 0 min 0 min 0 W/m 6,4 km/h (2 Bft) 100,00 %
30.03.2023 04:52 12,8 C 12,2 C 7,8 C 80 % 1006,4 hPa 0,0 l/m 0 min 0 min 0 W/m 16,1 km/h (3 Bft) 100,00 %
30.03.2023 04:54 12,9 C 12,8 C 7,8 C 80 % 1006,3 hPa 0,0 l/m 0 min 0 min 0 W/m 16,1 km/h (3 Bft) 100,00 %
30.03.2023 04:56 13,0 C 12,8 C 8,3 C 79 % 1006,4 hPa 0,0 l/m 0 min 0 min 0 W/m 16,1 km/h (3 Bft) 97,87 %
30.03.2023 04:58 13,2 C 12,8 C 8,3 C 79 % 1006,4 hPa 0,0 l/m 0 min 0 min 0 W/m 22,5 km/h (4 Bft) 100,00 %
30.03.2023 05:00 13,4 C 13,3 C 8,9 C 78 % 1006,3 hPa 0,0 l/m 0 min 0 min 0 W/m 19,3 km/h (3 Bft) 97,87 %
30.03.2023 05:02 13,6 C 13,3 C 8,9 C 77 % 1006,2 hPa 0,0 l/m 0 min 0 min 0 W/m 12,9 km/h (3 Bft) 100,00 %
30.03.2023 05:04 13,7 C 13,9 C 8,9 C 77 % 1006,3 hPa 0,0 l/m 0 min 0 min 0 W/m 16,1 km/h (3 Bft) 100,00 %
30.03.2023 05:06 13,9 C 13,9 C 8,9 C 76 % 1006,3 hPa 0,0 l/m 0 min 0 min 0 W/m 16,1 km/h (3 Bft) 98,28 %
30.03.2023 05:08 14,0 C 13,3 C 8,9 C 75 % 1006,3 hPa 0,0 l/m 0 min 0 min 0 W/m 6,4 km/h (2 Bft) 100,00 %
30.03.2023 05:10 14,1 C 13,3 C 8,9 C 75 % 1006,3 hPa 0,0 l/m 0 min 0 min 0 W/m 12,9 km/h (3 Bft) 97,14 %
30.03.2023 05:12 14,1 C 13,3 C 8,9 C 75 % 1006,3 hPa 0,0 l/m 0 min 0 min 0 W/m 6,4 km/h (2 Bft) 100,00 %
30.03.2023 05:14 14,2 C 13,3 C 8,9 C 75 % 1006,3 hPa 0,0 l/m 0 min 0 min 0 W/m 6,4 km/h (2 Bft) 100,00 %
30.03.2023 05:16 14,2 C 13,3 C 8,9 C 75 % 1006,3 hPa 0,0 l/m 0 min 0 min 0 W/m 9,7 km/h (2 Bft) 100,00 %
30.03.2023 05:18 14,2 C 13,3 C 8,9 C 75 % 1006,4 hPa 0,0 l/m 0 min 0 min 0 W/m 9,7 km/h (2 Bft) 97,87 %
30.03.2023 05:20 14,2 C 13,3 C 8,9 C 75 % 1006,4 hPa 0,0 l/m 0 min 0 min 0 W/m 6,4 km/h (2 Bft) 100,00 %
30.03.2023 05:22 14,3 C 13,3 C 8,9 C 75 % 1006,4 hPa 0,0 l/m 0 min 0 min 0 W/m 6,4 km/h (2 Bft) 100,00 %
30.03.2023 05:24 14,3 C 13,3 C 8,9 C 74 % 1006,5 hPa 0,0 l/m 0 min 0 min 0 W/m 6,4 km/h (2 Bft) 100,00 %
30.03.2023 05:26 14,3 C 13,3 C 8,9 C 74 % 1006,4 hPa 0,0 l/m 0 min 0 min 0 W/m 12,9 km/h (3 Bft) 98,04 %
30.03.2023 05:28 14,3 C 13,3 C 8,9 C 74 % 1006,4 hPa 0,0 l/m 0 min 0 min 0 W/m 6,4 km/h (2 Bft) 97,87 %
30.03.2023 05:30 14,3 C 13,9 C 8,9 C 74 % 1006,3 hPa 0,0 l/m 0 min 0 min 0 W/m 16,1 km/h (3 Bft) 97,87 %
30.03.2023 05:32 14,3 C 13,9 C 8,9 C 74 % 1006,3 hPa 0,0 l/m 0 min 0 min 0 W/m 12,9 km/h (3 Bft) 95,74 %
30.03.2023 05:34 14,3 C 13,9 C 8,9 C 74 % 1006,3 hPa 0,0 l/m 0 min 0 min 0 W/m 12,9 km/h (3 Bft) 97,87 %
30.03.2023 05:36 14,3 C 13,9 C 8,9 C 74 % 1006,3 hPa 0,0 l/m 0 min 0 min 0 W/m 16,1 km/h (3 Bft) 97,87 %
30.03.2023 05:38 14,4 C 13,9 C 8,9 C 74 % 1006,3 hPa 0,0 l/m 0 min 0 min 0 W/m 12,9 km/h (3 Bft) 93,62 %
30.03.2023 05:40 14,4 C 13,9 C 8,9 C 74 % 1006,3 hPa 0,0 l/m 0 min 0 min 0 W/m 19,3 km/h (3 Bft) 97,83 %
30.03.2023 05:42 14,4 C 13,9 C 8,9 C 74 % 1006,2 hPa 0,0 l/m 0 min 0 min 0 W/m 12,9 km/h (3 Bft) 97,87 %
30.03.2023 05:44 14,5 C 13,9 C 8,9 C 73 % 1006,2 hPa 0,0 l/m 0 min 0 min 0 W/m 12,9 km/h (3 Bft) 95,74 %
30.03.2023 05:46 14,5 C 13,9 C 8,9 C 73 % 1006,2 hPa 0,0 l/m 0 min 0 min 0 W/m 16,1 km/h (3 Bft) 95,74 %
30.03.2023 05:48 14,6 C 13,9 C 8,9 C 73 % 1006,1 hPa 0,0 l/m 0 min 0 min 0 W/m 9,7 km/h (2 Bft) 95,74 %
30.03.2023 05:50 14,6 C 13,3 C 8,9 C 73 % 1006,0 hPa 0,0 l/m 0 min 0 min 0 W/m 6,4 km/h (2 Bft) 89,36 %
30.03.2023 05:52 14,5 C 13,3 C 8,9 C 73 % 1006,1 hPa 0,0 l/m 0 min 0 min 0 W/m 6,4 km/h (2 Bft) 95,74 %
30.03.2023 05:54 14,5 C 13,3 C 8,9 C 73 % 1006,1 hPa 0,0 l/m 0 min 0 min 0 W/m 6,4 km/h (2 Bft) 91,30 %
30.03.2023 05:56 14,5 C 13,3 C 8,9 C 74 % 1006,0 hPa 0,0 l/m 0 min 0 min 0 W/m 9,7 km/h (2 Bft) 95,74 %
30.03.2023 05:58 14,4 C 13,3 C 8,9 C 74 % 1006,0 hPa 0,0 l/m 0 min 0 min 0 W/m 3,2 km/h (1 Bft) 95,35 %
30.03.2023 06:00 14,4 C 13,3 C 8,3 C 74 % 1006,0 hPa 0,0 l/m 0 min 0 min 0 W/m 6,4 km/h (2 Bft) 93,62 %
30.03.2023 06:02 14,4 C 13,3 C 8,3 C 74 % 1006,0 hPa 0,0 l/m 0 min 0 min 0 W/m 6,4 km/h (2 Bft) 93,62 %
30.03.2023 06:04 14,4 C 13,3 C 8,3 C 74 % 1005,9 hPa 0,0 l/m 0 min 0 min 0 W/m 3,2 km/h (1 Bft) 91,30 %
30.03.2023 06:07 14,3 C 13,3 C 8,3 C 74 % 1005,9 hPa 0,0 l/m 0 min 0 min 0 W/m 3,2 km/h (1 Bft) 90,48 %
30.03.2023 06:08 14,3 C 13,3 C 8,3 C 74 % 1005,9 hPa 0,0 l/m 0 min 0 min 0 W/m 3,2 km/h (1 Bft) 83,33 %
30.03.2023 06:12 14,3 C 13,3 C 8,3 C 74 % 1006,0 hPa 0,0 l/m 0 min 0 min 0 W/m 0,0 km/h (0 Bft) 90,91 %
30.03.2023 06:14 14,3 C 12,8 C 8,3 C 74 % 1006,0 hPa 0,0 l/m 0 min 0 min 0 W/m 3,2 km/h (1 Bft) 93,48 %
30.03.2023 06:16 14,3 C 12,8 C 7,8 C 74 % 1005,9 hPa 0,0 l/m 0 min 0 min 0 W/m 3,2 km/h (1 Bft) 95,74 %
30.03.2023 06:18 14,3 C 12,8 C 8,3 C 74 % 1005,9 hPa 0,0 l/m 0 min 0 min 0 W/m 3,2 km/h (1 Bft) 91,49 %
30.03.2023 06:20 14,3 C 12,8 C 8,3 C 75 % 1005,9 hPa 0,0 l/m 0 min 0 min 0 W/m 6,4 km/h (2 Bft) 95,74 %
30.03.2023 06:22 14,3 C 12,8 C 8,3 C 75 % 1005,9 hPa 0,0 l/m 0 min 0 min 0 W/m 9,7 km/h (2 Bft) 94,00 %
30.03.2023 06:24 14,3 C 12,8 C 8,3 C 75 % 1005,9 hPa 0,0 l/m 0 min 0 min 0 W/m 3,2 km/h (1 Bft) 93,62 %
30.03.2023 06:26 14,3 C 12,8 C 8,3 C 75 % 1005,9 hPa 0,0 l/m 0 min 0 min 0 W/m 9,7 km/h (2 Bft) 95,74 %
30.03.2023 06:28 14,2 C 12,8 C 8,3 C 75 % 1005,9 hPa 0,0 l/m 0 min 0 min 0 W/m 6,4 km/h (2 Bft) 97,83 %
30.03.2023 06:30 14,2 C 12,8 C 8,3 C 76 % 1005,9 hPa 0,0 l/m 0 min 0 min 0 W/m 12,9 km/h (3 Bft) 97,87 %
30.03.2023 06:32 14,1 C 12,8 C 8,3 C 76 % 1005,9 hPa 0,0 l/m 0 min 0 min 0 W/m 9,7 km/h (2 Bft) 97,87 %
30.03.2023 06:34 14,1 C 13,3 C 8,9 C 76 % 1005,9 hPa 0,0 l/m 0 min 0 min 0 W/m 12,9 km/h (3 Bft) 95,74 %
30.03.2023 06:36 14,1 C 13,3 C 8,9 C 76 % 1005,9 hPa 0,0 l/m 0 min 0 min 0 W/m 6,4 km/h (2 Bft) 100,00 %
30.03.2023 06:38 14,1 C 13,3 C 8,9 C 76 % 1005,9 hPa 0,0 l/m 0 min 0 min 0 W/m 16,1 km/h (3 Bft) 100,00 %
30.03.2023 06:40 14,1 C 13,3 C 8,9 C 76 % 1006,0 hPa 0,0 l/m 0 min 0 min 0 W/m 9,7 km/h (2 Bft) 97,87 %
30.03.2023 06:42 14,1 C 13,3 C 8,9 C 76 % 1005,9 hPa 0,0 l/m 0 min 0 min 0 W/m 9,7 km/h (2 Bft) 95,65 %
30.03.2023 06:44 14,1 C 13,3 C 8,9 C 76 % 1005,8 hPa 0,0 l/m 0 min 0 min 0 W/m 19,3 km/h (3 Bft) 100,00 %
30.03.2023 06:46 14,2 C 13,3 C 8,9 C 76 % 1005,8 hPa 0,0 l/m 0 min 0 min 0 W/m 19,3 km/h (3 Bft) 97,87 %
30.03.2023 06:48 14,2 C 13,3 C 8,9 C 76 % 1005,8 hPa 0,0 l/m 0 min 0 min 0 W/m 16,1 km/h (3 Bft) 100,00 %
30.03.2023 06:50 14,3 C 13,3 C 8,9 C 76 % 1005,8 hPa 0,0 l/m 0 min 0 min 0 W/m 12,9 km/h (3 Bft) 100,00 %
30.03.2023 06:52 14,3 C 13,3 C 8,9 C 76 % 1006,0 hPa 0,0 l/m 0 min 0 min 0 W/m 16,1 km/h (3 Bft) 97,87 %
30.03.2023 06:54 14,3 C 13,3 C 8,9 C 76 % 1005,9 hPa 0,0 l/m 0 min 0 min 0 W/m 16,1 km/h (3 Bft) 100,00 %
30.03.2023 06:56 14,3 C 13,3 C 8,9 C 76 % 1006,0 hPa 0,0 l/m 0 min 0 min 0 W/m 12,9 km/h (3 Bft) 97,83 %
30.03.2023 06:58 14,3 C 13,3 C 8,9 C 76 % 1005,9 hPa 0,0 l/m 0 min 0 min 0 W/m 22,5 km/h (4 Bft) 100,00 %
30.03.2023 07:00 14,3 C 13,3 C 8,9 C 76 % 1005,9 hPa 0,0 l/m 0 min 0 min 0 W/m 12,9 km/h (3 Bft) 100,00 %
30.03.2023 07:02 14,3 C 13,3 C 8,9 C 76 % 1005,8 hPa 0,0 l/m 0 min 0 min 0 W/m 12,9 km/h (3 Bft) 100,00 %
30.03.2023 07:04 14,3 C 13,3 C 8,9 C 76 % 1005,8 hPa 0,0 l/m 0 min 0 min 0 W/m 12,9 km/h (3 Bft) 100,00 %
30.03.2023 07:06 14,3 C 13,3 C 8,9 C 76 % 1005,8 hPa 0,0 l/m 0 min 0 min 0 W/m 9,7 km/h (2 Bft) 97,87 %
30.03.2023 07:08 14,3 C 13,3 C 8,9 C 76 % 1005,8 hPa 0,0 l/m 0 min 0 min 0 W/m 12,9 km/h (3 Bft) 100,00 %
30.03.2023 07:10 14,3 C 13,3 C 8,9 C 76 % 1005,8 hPa 0,0 l/m 0 min 0 min 0 W/m 16,1 km/h (3 Bft) 100,00 %
30.03.2023 07:12 14,3 C 13,3 C 8,9 C 76 % 1005,8 hPa 0,0 l/m 0 min 0 min 0 W/m 12,9 km/h (3 Bft) 100,00 %
30.03.2023 07:14 14,3 C 13,3 C 8,9 C 76 % 1005,8 hPa 0,0 l/m 0 min 0 min 0 W/m 22,5 km/h (4 Bft) 100,00 %
30.03.2023 07:16 14,3 C 13,3 C 8,9 C 76 % 1005,8 hPa 0,0 l/m 0 min 0 min 0 W/m 12,9 km/h (3 Bft) 97,87 %
30.03.2023 07:18 14,3 C 13,3 C 8,9 C 76 % 1005,9 hPa 0,0 l/m 0 min 0 min 0 W/m 16,1 km/h (3 Bft) 100,00 %
30.03.2023 07:20 14,3 C 13,3 C 8,9 C 76 % 1005,8 hPa 0,0 l/m 0 min 0 min 0 W/m 12,9 km/h (3 Bft) 100,00 %
30.03.2023 07:22 14,3 C 13,3 C 8,9 C 76 % 1005,8 hPa 0,0 l/m 0 min 0 min 0 W/m 12,9 km/h (3 Bft) 97,87 %
30.03.2023 07:24 14,3 C 13,3 C 8,9 C 76 % 1005,9 hPa 0,0 l/m 0 min 0 min 0 W/m 16,1 km/h (3 Bft) 100,00 %
30.03.2023 07:26 14,3 C 13,3 C 8,9 C 76 % 1005,9 hPa 0,0 l/m 0 min 0 min 0 W/m 12,9 km/h (3 Bft) 100,00 %
30.03.2023 07:28 14,3 C 13,3 C 8,9 C 76 % 1005,9 hPa 0,0 l/m 0 min 0 min 0 W/m 12,9 km/h (3 Bft) 97,87 %
30.03.2023 07:30 14,3 C 13,3 C 8,9 C 76 % 1005,9 hPa 0,0 l/m 0 min 0 min 0 W/m 16,1 km/h (3 Bft) 97,87 %
30.03.2023 07:32 14,3 C 13,3 C 8,9 C 76 % 1005,9 hPa 0,0 l/m 0 min 0 min 3 W/m 16,1 km/h (3 Bft) 100,00 %
30.03.2023 07:34 14,3 C 13,3 C 8,9 C 76 % 1005,9 hPa 0,0 l/m 0 min 0 min 5 W/m 19,3 km/h (3 Bft) 100,00 %
30.03.2023 07:36 14,3 C 13,3 C 8,9 C 76 % 1005,9 hPa 0,0 l/m 0 min 0 min 6 W/m 16,1 km/h (3 Bft) 100,00 %
30.03.2023 07:38 14,3 C 13,3 C 8,9 C 76 % 1005,8 hPa 0,0 l/m 0 min 0 min 8 W/m 12,9 km/h (3 Bft) 100,00 %
30.03.2023 07:40 14,3 C 13,3 C 8,9 C 76 % 1005,9 hPa 0,0 l/m 0 min 0 min 10 W/m 16,1 km/h (3 Bft) 100,00 %
30.03.2023 07:42 14,3 C 13,3 C 8,9 C 76 % 1005,8 hPa 0,0 l/m 0 min 0 min 13 W/m 16,1 km/h (3 Bft) 100,00 %
30.03.2023 07:44 14,2 C 13,3 C 8,9 C 76 % 1005,9 hPa 0,0 l/m 0 min 0 min 16 W/m 22,5 km/h (4 Bft) 100,00 %
30.03.2023 07:46 14,2 C 13,3 C 8,9 C 76 % 1005,8 hPa 0,0 l/m 0 min 0 min 19 W/m 12,9 km/h (3 Bft) 100,00 %
30.03.2023 07:48 14,2 C 13,3 C 8,9 C 76 % 1005,8 hPa 0,0 l/m 0 min 0 min 25 W/m 16,1 km/h (3 Bft) 100,00 %
30.03.2023 07:50 14,2 C 13,3 C 8,9 C 76 % 1005,8 hPa 0,0 l/m 0 min 0 min 26 W/m 19,3 km/h (3 Bft) 100,00 %
30.03.2023 07:52 14,3 C 13,3 C 8,9 C 75 % 1005,9 hPa 0,0 l/m 0 min 0 min 25 W/m 16,1 km/h (3 Bft) 97,83 %
30.03.2023 07:54 14,3 C 13,3 C 8,9 C 75 % 1005,8 hPa 0,0 l/m 0 min 0 min 29 W/m 12,9 km/h (3 Bft) 100,00 %
30.03.2023 07:56 14,3 C 13,3 C 8,9 C 75 % 1006,0 hPa 0,0 l/m 0 min 0 min 33 W/m 16,1 km/h (3 Bft) 97,87 %
30.03.2023 07:58 14,3 C 13,3 C 8,9 C 75 % 1006,0 hPa 0,0 l/m 0 min 0 min 33 W/m 19,3 km/h (3 Bft) 100,00 %
30.03.2023 08:00 14,3 C 13,3 C 9,4 C 75 % 1006,0 hPa 0,0 l/m 0 min 0 min 28 W/m 19,3 km/h (3 Bft) 85,11 %
30.03.2023 08:02 14,3 C 13,3 C 9,4 C 75 % 1006,0 hPa 0,0 l/m 0 min 0 min 28 W/m 19,3 km/h (3 Bft) 89,36 %
30.03.2023 08:04 14,3 C 13,3 C 8,9 C 75 % 1006,1 hPa 0,0 l/m 0 min 0 min 28 W/m 12,9 km/h (3 Bft) 82,98 %
30.03.2023 08:06 14,3 C 13,3 C 8,9 C 75 % 1006,1 hPa 0,0 l/m 0 min 0 min 26 W/m 16,1 km/h (3 Bft) 97,83 %
30.03.2023 08:08 14,3 C 13,3 C 8,9 C 75 % 1006,1 hPa 0,0 l/m 0 min 0 min 25 W/m 16,1 km/h (3 Bft) 95,74 %
30.03.2023 08:10 14,3 C 13,3 C 8,9 C 75 % 1006,2 hPa 0,0 l/m 0 min 0 min 25 W/m 19,3 km/h (3 Bft) 95,74 %
30.03.2023 08:12 14,3 C 13,3 C 8,9 C 75 % 1006,1 hPa 0,0 l/m 0 min 0 min 26 W/m 19,3 km/h (3 Bft) 36,17 %
30.03.2023 08:14 14,3 C 13,3 C 8,9 C 75 % 1006,1 hPa 0,0 l/m 0 min 0 min 29 W/m 16,1 km/h (3 Bft) 65,96 %
30.03.2023 08:16 14,3 C 13,3 C 8,9 C 75 % 1006,0 hPa 0,0 l/m 0 min 0 min 25 W/m 19,3 km/h (3 Bft) 95,74 %
30.03.2023 08:18 14,3 C 13,3 C 8,9 C 75 % 1006,1 hPa 0,0 l/m 0 min 0 min 25 W/m 16,1 km/h (3 Bft) 97,87 %
30.03.2023 08:20 14,3 C 13,3 C 8,9 C 75 % 1006,1 hPa 0,0 l/m 0 min 0 min 32 W/m 12,9 km/h (3 Bft) 95,65 %
30.03.2023 08:22 14,3 C 13,3 C 8,9 C 75 % 1006,1 hPa 0,0 l/m 0 min 0 min 25 W/m 29,0 km/h (5 Bft) 93,62 %
30.03.2023 08:24 14,3 C 13,3 C 8,9 C 75 % 1006,1 hPa 0,0 l/m 0 min 0 min 24 W/m 19,3 km/h (3 Bft) 95,74 %
30.03.2023 08:26 14,3 C 13,3 C 8,9 C 76 % 1006,1 hPa 0,0 l/m 0 min 0 min 25 W/m 29,0 km/h (5 Bft) 93,62 %
30.03.2023 08:28 14,3 C 13,3 C 8,9 C 76 % 1006,0 hPa 0,0 l/m 0 min 0 min 32 W/m 25,7 km/h (4 Bft) 89,36 %
30.03.2023 08:30 14,3 C 13,3 C 9,4 C 76 % 1006,1 hPa 0,0 l/m 0 min 0 min 50 W/m 22,5 km/h (4 Bft) 93,62 %
30.03.2023 08:32 14,3 C 13,3 C 9,4 C 76 % 1006,2 hPa 0,0 l/m 0 min 0 min 38 W/m 16,1 km/h (3 Bft) 93,62 %
30.03.2023 08:34 14,3 C 13,3 C 9,4 C 76 % 1006,1 hPa 0,0 l/m 0 min 0 min 33 W/m 19,3 km/h (3 Bft) 95,65 %
30.03.2023 08:36 14,3 C 13,3 C 9,4 C 76 % 1006,2 hPa 0,0 l/m 0 min 0 min 35 W/m 12,9 km/h (3 Bft) 97,83 %
30.03.2023 08:38 14,3 C 13,3 C 9,4 C 76 % 1006,2 hPa 0,0 l/m 0 min 0 min 36 W/m 16,1 km/h (3 Bft) 95,74 %
30.03.2023 08:40 14,3 C 13,3 C 9,4 C 77 % 1006,3 hPa 0,0 l/m 0 min 0 min 43 W/m 25,7 km/h (4 Bft) 95,74 %
30.03.2023 08:42 14,3 C 13,9 C 9,4 C 76 % 1006,3 hPa 0,0 l/m 0 min 0 min 39 W/m 25,7 km/h (4 Bft) 93,62 %
30.03.2023 08:44 14,3 C 13,9 C 9,4 C 76 % 1006,3 hPa 0,0 l/m 0 min 0 min 35 W/m 25,7 km/h (4 Bft) 95,74 %
30.03.2023 08:46 14,3 C 13,9 C 9,4 C 76 % 1006,3 hPa 0,0 l/m 0 min 0 min 34 W/m 19,3 km/h (3 Bft) 95,74 %
30.03.2023 08:48 14,3 C 13,9 C 9,4 C 76 % 1006,3 hPa 0,0 l/m 0 min 0 min 39 W/m 25,7 km/h (4 Bft) 95,74 %
30.03.2023 08:50 14,3 C 13,9 C 9,4 C 76 % 1006,3 hPa 0,0 l/m 0 min 0 min 63 W/m 22,5 km/h (4 Bft) 97,83 %
30.03.2023 08:52 14,3 C 13,9 C 9,4 C 76 % 1006,3 hPa 0,0 l/m 0 min 0 min 76 W/m 35,4 km/h (5 Bft) 95,74 %
30.03.2023 08:54 14,3 C 13,9 C 9,4 C 76 % 1006,3 hPa 0,0 l/m 0 min 0 min 84 W/m 25,7 km/h (4 Bft) 93,62 %
30.03.2023 08:56 14,3 C 13,9 C 9,4 C 76 % 1006,3 hPa 0,0 l/m 0 min 0 min 84 W/m 19,3 km/h (3 Bft) 95,74 %
30.03.2023 08:58 14,3 C 13,9 C 9,4 C 76 % 1006,3 hPa 0,0 l/m 0 min 0 min 80 W/m 16,1 km/h (3 Bft) 95,74 %
30.03.2023 09:00 14,3 C 13,9 C 9,4 C 76 % 1006,4 hPa 0,0 l/m 0 min 0 min 84 W/m 19,3 km/h (3 Bft) 93,62 %
30.03.2023 09:02 14,3 C 13,9 C 9,4 C 76 % 1006,4 hPa 0,0 l/m 0 min 0 min 89 W/m 19,3 km/h (3 Bft) 93,62 %
30.03.2023 09:04 14,4 C 13,9 C 9,4 C 76 % 1006,4 hPa 0,0 l/m 0 min 0 min 98 W/m 12,9 km/h (3 Bft) 97,83 %
30.03.2023 09:06 14,4 C 13,9 C 9,4 C 76 % 1006,4 hPa 0,0 l/m 0 min 0 min 102 W/m 29,0 km/h (5 Bft) 97,87 %
30.03.2023 09:08 14,4 C 13,9 C 9,4 C 76 % 1006,4 hPa 0,0 l/m 0 min 0 min 90 W/m 16,1 km/h (3 Bft) 97,87 %
30.03.2023 09:10 14,4 C 13,9 C 10,0 C 76 % 1006,4 hPa 0,0 l/m 0 min 0 min 91 W/m 29,0 km/h (5 Bft) 97,87 %
30.03.2023 09:12 14,4 C 13,9 C 10,0 C 76 % 1006,4 hPa 0,0 l/m 0 min 0 min 84 W/m 29,0 km/h (5 Bft) 97,87 %
30.03.2023 09:14 14,5 C 13,9 C 10,0 C 76 % 1006,4 hPa 0,0 l/m 0 min 0 min 89 W/m 22,5 km/h (4 Bft) 97,87 %
30.03.2023 09:16 14,4 C 13,9 C 10,0 C 76 % 1006,4 hPa 0,0 l/m 0 min 0 min 86 W/m 19,3 km/h (3 Bft) 97,83 %
30.03.2023 09:18 14,5 C 13,9 C 10,0 C 76 % 1006,5 hPa 0,0 l/m 0 min 0 min 89 W/m 41,8 km/h (6 Bft) 100,00 %
30.03.2023 09:20 14,5 C 13,9 C 10,0 C 76 % 1006,5 hPa 0,0 l/m 0 min 0 min 81 W/m 16,1 km/h (3 Bft) 100,00 %
30.03.2023 09:22 14,5 C 13,9 C 9,4 C 76 % 1006,5 hPa 0,0 l/m 0 min 0 min 59 W/m 19,3 km/h (3 Bft) 100,00 %
30.03.2023 09:24 14,5 C 13,9 C 9,4 C 76 % 1006,5 hPa 0,0 l/m 0 min 0 min 56 W/m 19,3 km/h (3 Bft) 97,87 %
30.03.2023 09:26 14,4 C 13,9 C 9,4 C 76 % 1006,5 hPa 0,0 l/m 0 min 0 min 63 W/m 16,1 km/h (3 Bft) 100,00 %
30.03.2023 09:28 14,4 C 13,9 C 9,4 C 76 % 1006,6 hPa 0,0 l/m 0 min 0 min 43 W/m 22,5 km/h (4 Bft) 100,00 %
30.03.2023 09:30 14,4 C 13,3 C 9,4 C 76 % 1006,8 hPa 0,0 l/m 0 min 2 min 73 W/m 38,6 km/h (5 Bft) 100,00 %
30.03.2023 09:32 14,3 C 13,3 C 8,9 C 78 % 1006,7 hPa 0,0 l/m 0 min 2 min 88 W/m 25,7 km/h (4 Bft) 100,00 %
30.03.2023 09:34 14,3 C 12,8 C 8,3 C 79 % 1006,7 hPa 0,0 l/m 0 min 2 min 68 W/m 25,7 km/h (4 Bft) 100,00 %
30.03.2023 09:36 14,1 C 12,8 C 8,3 C 80 % 1006,7 hPa 0,0 l/m 0 min 2 min 78 W/m 19,3 km/h (3 Bft) 100,00 %
30.03.2023 09:38 13,9 C 12,8 C 8,3 C 80 % 1006,8 hPa 0,0 l/m 0 min 2 min 84 W/m 16,1 km/h (3 Bft) 100,00 %
30.03.2023 09:40 13,8 C 12,8 C 8,3 C 81 % 1006,8 hPa 0,0 l/m 0 min 2 min 84 W/m 25,7 km/h (4 Bft) 100,00 %
30.03.2023 09:42 13,8 C 13,3 C 8,3 C 81 % 1006,9 hPa 0,0 l/m 0 min 2 min 99 W/m 25,7 km/h (4 Bft) 100,00 %
30.03.2023 09:44 13,8 C 13,3 C 8,9 C 81 % 1006,9 hPa 0,0 l/m 0 min 0 min 128 W/m 29,0 km/h (5 Bft) 100,00 %
30.03.2023 09:46 13,7 C 13,3 C 8,9 C 81 % 1006,9 hPa 0,0 l/m 0 min 2 min 134 W/m 19,3 km/h (3 Bft) 100,00 %
30.03.2023 09:48 13,7 C 13,3 C 8,9 C 82 % 1006,9 hPa 0,0 l/m 0 min 0 min 118 W/m 32,2 km/h (5 Bft) 100,00 %
30.03.2023 09:50 13,7 C 13,3 C 8,9 C 81 % 1006,9 hPa 0,0 l/m 0 min 0 min 118 W/m 19,3 km/h (3 Bft) 100,00 %
30.03.2023 09:52 13,7 C 13,3 C 8,9 C 81 % 1006,9 hPa 0,0 l/m 0 min 0 min 129 W/m 35,4 km/h (5 Bft) 100,00 %
30.03.2023 09:54 13,7 C 13,3 C 9,4 C 81 % 1006,9 hPa 0,0 l/m 0 min 0 min 122 W/m 19,3 km/h (3 Bft) 97,87 %
30.03.2023 09:56 13,8 C 13,3 C 9,4 C 81 % 1007,0 hPa 0,0 l/m 0 min 0 min 103 W/m 16,1 km/h (3 Bft) 100,00 %
30.03.2023 09:58 13,8 C 13,3 C 8,9 C 81 % 1006,9 hPa 0,0 l/m 0 min 0 min 101 W/m 22,5 km/h (4 Bft) 100,00 %
30.03.2023 10:00 13,8 C 13,3 C 9,4 C 81 % 1007,0 hPa 0,0 l/m 0 min 0 min 108 W/m 22,5 km/h (4 Bft) 97,87 %
30.03.2023 10:02 13,8 C 13,3 C 9,4 C 81 % 1007,1 hPa 0,0 l/m 0 min 0 min 137 W/m 19,3 km/h (3 Bft) 95,74 %
30.03.2023 10:04 13,8 C 13,3 C 9,4 C 81 % 1007,0 hPa 0,0 l/m 0 min 0 min 148 W/m 16,1 km/h (3 Bft) 97,87 %
30.03.2023 10:06 13,8 C 13,9 C 9,4 C 81 % 1007,1 hPa 0,0 l/m 0 min 0 min 156 W/m 12,9 km/h (3 Bft) 97,87 %
30.03.2023 10:08 13,8 C 13,9 C 9,4 C 81 % 1007,1 hPa 0,0 l/m 0 min 0 min 142 W/m 22,5 km/h (4 Bft) 97,87 %
30.03.2023 10:10 13,8 C 13,9 C 9,4 C 81 % 1007,1 hPa 0,0 l/m 0 min 0 min 129 W/m 22,5 km/h (4 Bft) 97,83 %
30.03.2023 10:12 13,8 C 13,9 C 9,4 C 81 % 1007,1 hPa 0,0 l/m 0 min 0 min 152 W/m 22,5 km/h (4 Bft) 97,87 %
30.03.2023 10:14 13,8 C 13,9 C 9,4 C 81 % 1007,2 hPa 0,0 l/m 0 min 0 min 154 W/m 22,5 km/h (4 Bft) 97,87 %
30.03.2023 10:16 13,8 C 13,3 C 9,4 C 81 % 1007,1 hPa 0,0 l/m 0 min 0 min 123 W/m 22,5 km/h (4 Bft) 97,87 %
30.03.2023 10:18 13,8 C 13,3 C 9,4 C 81 % 1007,1 hPa 0,0 l/m 0 min 0 min 105 W/m 22,5 km/h (4 Bft) 97,87 %
30.03.2023 10:20 13,8 C 13,3 C 9,4 C 81 % 1007,1 hPa 0,0 l/m 0 min 0 min 113 W/m 16,1 km/h (3 Bft) 97,87 %
30.03.2023 10:22 13,8 C 13,3 C 9,4 C 81 % 1007,1 hPa 0,0 l/m 0 min 0 min 132 W/m 16,1 km/h (3 Bft) 97,87 %
30.03.2023 10:24 13,7 C 13,3 C 9,4 C 81 % 1007,1 hPa 0,0 l/m 0 min 0 min 126 W/m 19,3 km/h (3 Bft) 97,83 %
30.03.2023 10:26 13,7 C 13,9 C 9,4 C 81 % 1007,1 hPa 0,0 l/m 0 min 0 min 112 W/m 25,7 km/h (4 Bft) 97,87 %
30.03.2023 10:28 13,7 C 15,0 C 9,4 C 81 % 1007,2 hPa 0,0 l/m 0 min 0 min 180 W/m 12,9 km/h (3 Bft) 97,87 %
30.03.2023 10:30 13,8 C 16,1 C 10,0 C 81 % 1007,2 hPa 0,0 l/m 2 min 0 min 341 W/m 19,3 km/h (3 Bft) 97,87 %
30.03.2023 10:32 14,0 C 17,2 C 10,0 C 81 % 1007,2 hPa 0,0 l/m 2 min 0 min 267 W/m 16,1 km/h (3 Bft) 95,74 %
30.03.2023 10:34 14,2 C 17,8 C 10,6 C 81 % 1007,2 hPa 0,0 l/m 2 min 0 min 335 W/m 35,4 km/h (5 Bft) 97,87 %
30.03.2023 10:36 14,3 C 17,2 C 10,6 C 80 % 1007,2 hPa 0,0 l/m 2 min 0 min 329 W/m 12,9 km/h (3 Bft) 100,00 %
30.03.2023 10:38 14,4 C 17,2 C 10,6 C 80 % 1007,1 hPa 0,0 l/m 2 min 0 min 249 W/m 12,9 km/h (3 Bft) 100,00 %
30.03.2023 10:40 14,6 C 16,7 C 10,6 C 80 % 1007,2 hPa 0,0 l/m 0 min 0 min 197 W/m 32,2 km/h (5 Bft) 100,00 %
30.03.2023 10:42 14,6 C 16,1 C 10,6 C 79 % 1007,1 hPa 0,0 l/m 0 min 0 min 213 W/m 25,7 km/h (4 Bft) 97,87 %
30.03.2023 10:44 14,6 C 15,6 C 10,6 C 78 % 1007,1 hPa 0,0 l/m 0 min 0 min 178 W/m 22,5 km/h (4 Bft) 100,00 %
30.03.2023 10:46 14,6 C 15,0 C 10,6 C 78 % 1007,1 hPa 0,0 l/m 0 min 0 min 165 W/m 16,1 km/h (3 Bft) 100,00 %
30.03.2023 10:48 14,6 C 14,4 C 10,6 C 78 % 1007,1 hPa 0,0 l/m 0 min 0 min 181 W/m 22,5 km/h (4 Bft) 100,00 %
30.03.2023 10:50 14,5 C 14,4 C 10,0 C 77 % 1007,2 hPa 0,0 l/m 0 min 0 min 151 W/m 25,7 km/h (4 Bft) 100,00 %
30.03.2023 10:52 14,4 C 14,4 C 10,0 C 77 % 1007,2 hPa 0,0 l/m 0 min 0 min 130 W/m 25,7 km/h (4 Bft) 97,83 %
30.03.2023 10:54 14,3 C 13,9 C 10,0 C 77 % 1007,1 hPa 0,0 l/m 0 min 0 min 143 W/m 25,7 km/h (4 Bft) 97,87 %
30.03.2023 10:56 14,3 C 13,9 C 10,0 C 77 % 1007,1 hPa 0,0 l/m 0 min 0 min 193 W/m 29,0 km/h (5 Bft) 100,00 %
30.03.2023 10:58 14,3 C 13,9 C 10,0 C 77 % 1007,2 hPa 0,0 l/m 0 min 0 min 213 W/m 22,5 km/h (4 Bft) 100,00 %
30.03.2023 11:00 14,3 C 14,4 C 10,0 C 78 % 1007,2 hPa 0,0 l/m 0 min 0 min 248 W/m 29,0 km/h (5 Bft) 100,00 %
30.03.2023 11:02 14,3 C 14,4 C 10,0 C 78 % 1007,3 hPa 0,0 l/m 2 min 0 min 315 W/m 22,5 km/h (4 Bft) 97,87 %
30.03.2023 11:04 14,3 C 14,4 C 10,6 C 78 % 1007,2 hPa 0,0 l/m 2 min 0 min 284 W/m 29,0 km/h (5 Bft) 100,00 %
30.03.2023 11:06 14,3 C 13,9 C 10,0 C 78 % 1007,3 hPa 0,0 l/m 0 min 0 min 101 W/m 32,2 km/h (5 Bft) 100,00 %
30.03.2023 11:08 14,3 C 13,9 C 10,0 C 78 % 1007,3 hPa 0,0 l/m 0 min 0 min 76 W/m 25,7 km/h (4 Bft) 93,62 %
30.03.2023 11:10 14,3 C 13,9 C 9,4 C 78 % 1007,2 hPa 0,0 l/m 0 min 0 min 55 W/m 22,5 km/h (4 Bft) 97,87 %
30.03.2023 11:12 14,3 C 13,3 C 9,4 C 77 % 1007,2 hPa 0,0 l/m 0 min 0 min 36 W/m 16,1 km/h (3 Bft) 95,74 %
30.03.2023 11:14 14,2 C 13,3 C 9,4 C 78 % 1007,2 hPa 0,0 l/m 0 min 0 min 34 W/m 19,3 km/h (3 Bft) 97,87 %
30.03.2023 11:16 14,1 C 13,3 C 9,4 C 77 % 1007,3 hPa 0,0 l/m 0 min 0 min 35 W/m 19,3 km/h (3 Bft) 95,74 %
30.03.2023 11:18 14,1 C 12,8 C 8,9 C 78 % 1007,3 hPa 0,0 l/m 0 min 2 min 37 W/m 22,5 km/h (4 Bft) 93,62 %
30.03.2023 11:20 14,0 C 12,8 C 8,9 C 78 % 1007,3 hPa 0,0 l/m 0 min 2 min 58 W/m 12,9 km/h (3 Bft) 95,65 %
30.03.2023 11:22 13,9 C 12,8 C 8,3 C 79 % 1007,4 hPa 0,0 l/m 0 min 2 min 48 W/m 19,3 km/h (3 Bft) 97,87 %
30.03.2023 11:24 13,9 C 12,8 C 8,3 C 80 % 1007,6 hPa 0,0 l/m 0 min 0 min 47 W/m 32,2 km/h (5 Bft) 97,87 %
30.03.2023 11:26 13,8 C 12,8 C 8,3 C 81 % 1007,5 hPa 0,0 l/m 0 min 0 min 93 W/m 35,4 km/h (5 Bft) 93,62 %
30.03.2023 11:28 13,7 C 13,3 C 8,3 C 82 % 1007,6 hPa 0,0 l/m 0 min 0 min 162 W/m 22,5 km/h (4 Bft) 95,74 %
30.03.2023 11:30 13,7 C 13,9 C 8,9 C 82 % 1007,5 hPa 0,0 l/m 2 min 0 min 293 W/m 22,5 km/h (4 Bft) 95,74 %
30.03.2023 11:32 13,7 C 14,4 C 9,4 C 83 % 1007,5 hPa 0,0 l/m 2 min 0 min 320 W/m 22,5 km/h (4 Bft) 95,74 %
30.03.2023 11:34 13,7 C 14,4 C 10,0 C 82 % 1007,5 hPa 0,0 l/m 2 min 0 min 316 W/m 22,5 km/h (4 Bft) 93,48 %
30.03.2023 11:36 13,8 C 14,4 C 10,0 C 82 % 1007,6 hPa 0,0 l/m 0 min 0 min 233 W/m 25,7 km/h (4 Bft) 95,74 %
30.03.2023 11:38 13,8 C 13,9 C 10,0 C 81 % 1007,7 hPa 0,0 l/m 0 min 0 min 176 W/m 22,5 km/h (4 Bft) 95,74 %
30.03.2023 11:40 13,8 C 13,3 C 9,4 C 81 % 1007,7 hPa 0,0 l/m 0 min 0 min 128 W/m 29,0 km/h (5 Bft) 93,62 %
30.03.2023 11:42 13,8 C 13,3 C 9,4 C 81 % 1007,8 hPa 0,0 l/m 0 min 0 min 90 W/m 22,5 km/h (4 Bft) 93,62 %
30.03.2023 11:44 13,8 C 13,3 C 9,4 C 80 % 1007,9 hPa 0,0 l/m 0 min 0 min 43 W/m 22,5 km/h (4 Bft) 93,62 %
30.03.2023 11:46 13,7 C 12,8 C 9,4 C 80 % 1007,9 hPa 0,0 l/m 0 min 0 min 60 W/m 25,7 km/h (4 Bft) 95,74 %
30.03.2023 11:48 13,7 C 12,8 C 9,4 C 80 % 1007,9 hPa 0,0 l/m 0 min 0 min 65 W/m 19,3 km/h (3 Bft) 93,48 %
30.03.2023 11:50 13,6 C 12,8 C 8,9 C 80 % 1007,9 hPa 0,0 l/m 0 min 0 min 56 W/m 29,0 km/h (5 Bft) 95,74 %
30.03.2023 11:52 13,6 C 12,8 C 8,9 C 80 % 1007,9 hPa 0,0 l/m 0 min 0 min 72 W/m 38,6 km/h (5 Bft) 95,74 %
30.03.2023 11:54 13,5 C 12,8 C 8,9 C 81 % 1008,0 hPa 0,0 l/m 0 min 0 min 93 W/m 32,2 km/h (5 Bft) 97,87 %
30.03.2023 11:56 13,4 C 12,8 C 8,9 C 81 % 1007,9 hPa 0,0 l/m 0 min 0 min 108 W/m 29,0 km/h (5 Bft) 95,74 %
30.03.2023 11:58 13,4 C 12,8 C 8,9 C 81 % 1008,0 hPa 0,0 l/m 0 min 0 min 110 W/m 32,2 km/h (5 Bft) 91,49 %
30.03.2023 12:00 13,3 C 12,8 C 8,9 C 81 % 1008,1 hPa 0,0 l/m 0 min 0 min 122 W/m 29,0 km/h (5 Bft) 97,87 %
30.03.2023 12:02 13,3 C 12,8 C 8,9 C 81 % 1008,0 hPa 0,0 l/m 0 min 0 min 127 W/m 29,0 km/h (5 Bft) 95,65 %
30.03.2023 12:04 13,3 C 12,8 C 8,9 C 81 % 1008,1 hPa 0,0 l/m 0 min 0 min 130 W/m 35,4 km/h (5 Bft) 95,74 %
30.03.2023 12:07 13,2 C 12,8 C 8,9 C 82 % 1008,0 hPa 0,0 l/m 0 min 0 min 148 W/m 32,2 km/h (5 Bft) 93,06 %
30.03.2023 12:08 13,2 C 12,8 C 8,9 C 82 % 1008,0 hPa 0,0 l/m 0 min 0 min 195 W/m 22,5 km/h (4 Bft) 100,00 %
30.03.2023 12:12 13,3 C 13,3 C 9,4 C 82 % 1008,1 hPa 0,0 l/m 0 min 0 min 232 W/m 22,5 km/h (4 Bft) 96,55 %
30.03.2023 12:14 13,3 C 13,3 C 9,4 C 82 % 1008,0 hPa 0,0 l/m 0 min 0 min 245 W/m 16,1 km/h (3 Bft) 93,62 %
30.03.2023 12:16 13,3 C 13,3 C 9,4 C 82 % 1008,0 hPa 0,0 l/m 0 min 0 min 233 W/m 12,9 km/h (3 Bft) 95,74 %
30.03.2023 12:18 13,3 C 13,3 C 9,4 C 82 % 1008,0 hPa 0,0 l/m 0 min 0 min 224 W/m 29,0 km/h (5 Bft) 97,87 %
30.03.2023 12:20 13,4 C 13,3 C 9,4 C 82 % 1008,1 hPa 0,0 l/m 0 min 0 min 234 W/m 22,5 km/h (4 Bft) 97,87 %
30.03.2023 12:22 13,4 C 13,9 C 9,4 C 82 % 1008,1 hPa 0,0 l/m 0 min 0 min 264 W/m 16,1 km/h (3 Bft) 97,83 %
30.03.2023 12:24 13,4 C 13,9 C 9,4 C 82 % 1008,1 hPa 0,0 l/m 0 min 0 min 247 W/m 22,5 km/h (4 Bft) 95,74 %
30.03.2023 12:26 13,5 C 13,9 C 9,4 C 82 % 1008,2 hPa 0,0 l/m 0 min 0 min 255 W/m 25,7 km/h (4 Bft) 97,87 %
30.03.2023 12:28 13,6 C 14,4 C 10,0 C 82 % 1008,2 hPa 0,0 l/m 0 min 0 min 258 W/m 22,5 km/h (4 Bft) 97,87 %
30.03.2023 12:30 13,6 C 15,0 C 10,0 C 82 % 1008,2 hPa 0,0 l/m 0 min 0 min 226 W/m 19,3 km/h (3 Bft) 97,87 %
30.03.2023 12:32 13,6 C 14,4 C 10,0 C 82 % 1008,3 hPa 0,0 l/m 0 min 0 min 257 W/m 22,5 km/h (4 Bft) 97,87 %
30.03.2023 12:34 13,7 C 15,6 C 10,6 C 82 % 1008,2 hPa 0,0 l/m 0 min 0 min 297 W/m 16,1 km/h (3 Bft) 97,83 %
30.03.2023 12:36 13,8 C 16,1 C 11,1 C 82 % 1008,2 hPa 0,0 l/m 0 min 0 min 299 W/m 19,3 km/h (3 Bft) 100,00 %
30.03.2023 12:38 13,9 C 17,2 C 11,7 C 82 % 1008,2 hPa 0,0 l/m 0 min 0 min 299 W/m 22,5 km/h (4 Bft) 100,00 %
30.03.2023 12:40 14,0 C 17,2 C 11,7 C 82 % 1008,1 hPa 0,0 l/m 0 min 0 min 299 W/m 45,1 km/h (6 Bft) 100,00 %
30.03.2023 12:42 14,2 C 18,3 C 12,2 C 82 % 1008,1 hPa 0,0 l/m 2 min 0 min 574 W/m 29,0 km/h (5 Bft) 100,00 %
30.03.2023 12:44 14,3 C 19,4 C 13,3 C 81 % 1008,2 hPa 0,0 l/m 2 min 0 min 778 W/m 35,4 km/h (5 Bft) 97,87 %
30.03.2023 12:46 14,4 C 21,1 C 13,9 C 81 % 1008,2 hPa 0,0 l/m 2 min 0 min 808 W/m 29,0 km/h (5 Bft) 95,74 %
30.03.2023 12:48 14,7 C 21,7 C 13,9 C 80 % 1008,1 hPa 0,0 l/m 2 min 0 min 769 W/m 16,1 km/h (3 Bft) 100,00 %
30.03.2023 12:50 14,9 C 22,2 C 13,9 C 80 % 1008,1 hPa 0,0 l/m 2 min 0 min 745 W/m 22,5 km/h (4 Bft) 100,00 %
30.03.2023 12:52 15,2 C 21,1 C 13,9 C 79 % 1008,1 hPa 0,0 l/m 2 min 0 min 785 W/m 29,0 km/h (5 Bft) 100,00 %
30.03.2023 12:54 15,3 C 21,7 C 13,9 C 79 % 1008,1 hPa 0,0 l/m 2 min 0 min 790 W/m 12,9 km/h (3 Bft) 100,00 %
30.03.2023 12:56 15,5 C 20,0 C 13,9 C 77 % 1008,1 hPa 0,0 l/m 2 min 0 min 846 W/m 35,4 km/h (5 Bft) 95,74 %
30.03.2023 12:58 15,6 C 19,4 C 13,3 C 76 % 1008,1 hPa 0,0 l/m 2 min 0 min 840 W/m 48,3 km/h (6 Bft) 97,87 %
30.03.2023 13:00 15,6 C 18,3 C 12,8 C 76 % 1008,2 hPa 0,0 l/m 2 min 0 min 791 W/m 32,2 km/h (5 Bft) 100,00 %
30.03.2023 13:02 15,6 C 17,8 C 12,8 C 76 % 1008,2 hPa 0,0 l/m 0 min 0 min 315 W/m 16,1 km/h (3 Bft) 100,00 %
30.03.2023 13:04 15,6 C 17,2 C 12,8 C 76 % 1008,2 hPa 0,0 l/m 2 min 0 min 394 W/m 29,0 km/h (5 Bft) 100,00 %
30.03.2023 13:06 15,5 C 16,7 C 12,2 C 76 % 1008,0 hPa 0,0 l/m 2 min 0 min 657 W/m 32,2 km/h (5 Bft) 100,00 %
30.03.2023 13:08 15,6 C 17,2 C 12,2 C 76 % 1008,1 hPa 0,0 l/m 2 min 0 min 668 W/m 25,7 km/h (4 Bft) 100,00 %
30.03.2023 13:10 15,6 C 16,1 C 12,2 C 76 % 1008,1 hPa 0,0 l/m 2 min 0 min 438 W/m 29,0 km/h (5 Bft) 100,00 %
30.03.2023 13:12 15,6 C 16,1 C 11,7 C 76 % 1008,2 hPa 0,0 l/m 0 min 0 min 226 W/m 16,1 km/h (3 Bft) 100,00 %
30.03.2023 13:14 15,4 C 16,1 C 11,7 C 75 % 1008,1 hPa 0,0 l/m 0 min 0 min 260 W/m 35,4 km/h (5 Bft) 100,00 %
30.03.2023 13:16 15,4 C 16,7 C 11,7 C 75 % 1008,2 hPa 0,0 l/m 0 min 0 min 241 W/m 35,4 km/h (5 Bft) 100,00 %
30.03.2023 13:18 15,4 C 16,1 C 11,7 C 76 % 1008,1 hPa 0,0 l/m 0 min 0 min 235 W/m 22,5 km/h (4 Bft) 100,00 %
30.03.2023 13:20 15,4 C 16,1 C 11,7 C 75 % 1008,1 hPa 0,0 l/m 0 min 0 min 260 W/m 19,3 km/h (3 Bft) 100,00 %
30.03.2023 13:22 15,3 C 16,1 C 11,7 C 75 % 1008,2 hPa 0,0 l/m 0 min 0 min 328 W/m 19,3 km/h (3 Bft) 97,87 %
30.03.2023 13:24 15,3 C 16,1 C 11,7 C 75 % 1008,2 hPa 0,0 l/m 0 min 0 min 260 W/m 16,1 km/h (3 Bft) 100,00 %
30.03.2023 13:26 15,3 C 16,7 C 11,7 C 76 % 1008,3 hPa 0,0 l/m 0 min 0 min 302 W/m 22,5 km/h (4 Bft) 100,00 %
30.03.2023 13:28 15,4 C 16,7 C 11,7 C 75 % 1008,1 hPa 0,0 l/m 0 min 0 min 265 W/m 38,6 km/h (5 Bft) 100,00 %
30.03.2023 13:30 15,5 C 17,8 C 12,2 C 75 % 1008,2 hPa 0,0 l/m 0 min 0 min 260 W/m 22,5 km/h (4 Bft) 100,00 %
30.03.2023 13:32 15,7 C 18,9 C 12,8 C 76 % 1008,2 hPa 0,0 l/m 2 min 0 min 754 W/m 16,1 km/h (3 Bft) 100,00 %
30.03.2023 13:34 15,7 C 17,8 C 12,2 C 74 % 1008,1 hPa 0,0 l/m 0 min 0 min 322 W/m 38,6 km/h (5 Bft) 100,00 %
30.03.2023 13:36 15,7 C 17,8 C 12,2 C 74 % 1008,1 hPa 0,0 l/m 0 min 0 min 265 W/m 29,0 km/h (5 Bft) 100,00 %
30.03.2023 13:38 15,8 C 17,2 C 12,2 C 74 % 1008,1 hPa 0,0 l/m 0 min 0 min 252 W/m 16,1 km/h (3 Bft) 100,00 %
30.03.2023 13:40 15,7 C 16,1 C 12,2 C 73 % 1008,1 hPa 0,0 l/m 0 min 0 min 226 W/m 16,1 km/h (3 Bft) 100,00 %
30.03.2023 13:42 15,6 C 15,6 C 11,7 C 73 % 1008,2 hPa 0,0 l/m 0 min 0 min 184 W/m 22,5 km/h (4 Bft) 97,83 %
30.03.2023 13:44 15,4 C 15,0 C 11,1 C 74 % 1008,1 hPa 0,0 l/m 0 min 0 min 102 W/m 16,1 km/h (3 Bft) 100,00 %
30.03.2023 13:46 15,3 C 14,4 C 11,1 C 75 % 1008,1 hPa 0,0 l/m 0 min 2 min 65 W/m 16,1 km/h (3 Bft) 97,87 %
30.03.2023 13:48 15,1 C 13,9 C 9,4 C 76 % 1008,2 hPa 0,2 l/m 0 min 2 min 50 W/m 25,7 km/h (4 Bft) 97,87 %
30.03.2023 13:50 14,8 C 12,8 C 7,8 C 79 % 1008,4 hPa 0,6 l/m 0 min 2 min 46 W/m 19,3 km/h (3 Bft) 95,74 %
30.03.2023 13:52 14,3 C 12,2 C 7,2 C 80 % 1008,2 hPa 0,4 l/m 0 min 2 min 63 W/m 16,1 km/h (3 Bft) 97,87 %
30.03.2023 13:54 13,9 C 12,2 C 7,2 C 81 % 1008,2 hPa 0,0 l/m 0 min 2 min 107 W/m 16,1 km/h (3 Bft) 97,87 %
30.03.2023 13:56 13,7 C 12,2 C 7,2 C 83 % 1008,2 hPa 0,0 l/m 0 min 0 min 116 W/m 12,9 km/h (3 Bft) 95,65 %
30.03.2023 13:58 13,5 C 12,2 C 7,2 C 83 % 1008,1 hPa 0,0 l/m 0 min 0 min 83 W/m 6,4 km/h (2 Bft) 95,74 %
30.03.2023 14:00 13,4 C 12,2 C 7,2 C 84 % 1008,2 hPa 0,0 l/m 0 min 2 min 48 W/m 9,7 km/h (2 Bft) 95,74 %
30.03.2023 14:02 13,3 C 12,2 C 7,2 C 85 % 1008,3 hPa 0,0 l/m 0 min 2 min 28 W/m 12,9 km/h (3 Bft) 97,87 %
30.03.2023 14:04 13,2 C 12,2 C 7,2 C 85 % 1008,4 hPa 0,2 l/m 0 min 2 min 56 W/m 16,1 km/h (3 Bft) 97,87 %
30.03.2023 14:06 13,1 C 12,8 C 7,2 C 86 % 1008,4 hPa 0,2 l/m 0 min 2 min 164 W/m 41,8 km/h (6 Bft) 95,74 %
30.03.2023 14:08 13,2 C 13,9 C 7,2 C 86 % 1008,4 hPa 0,0 l/m 0 min 2 min 264 W/m 12,9 km/h (3 Bft) 93,48 %
30.03.2023 14:10 13,3 C 16,7 C 7,8 C 87 % 1008,5 hPa 0,0 l/m 2 min 0 min 522 W/m 16,1 km/h (3 Bft) 95,74 %
30.03.2023 14:12 13,6 C 18,9 C 8,3 C 89 % 1008,5 hPa 0,0 l/m 2 min 0 min 681 W/m 19,3 km/h (3 Bft) 93,62 %
30.03.2023 14:14 13,8 C 18,3 C 8,9 C 89 % 1008,4 hPa 0,0 l/m 2 min 0 min 680 W/m 12,9 km/h (3 Bft) 93,62 %
30.03.2023 14:16 14,1 C 16,7 C 8,9 C 89 % 1008,5 hPa 0,0 l/m 0 min 0 min 218 W/m 19,3 km/h (3 Bft) 91,49 %
30.03.2023 14:18 14,1 C 15,0 C 8,3 C 87 % 1008,5 hPa 0,0 l/m 0 min 0 min 138 W/m 22,5 km/h (4 Bft) 95,74 %
30.03.2023 14:20 14,1 C 14,4 C 7,8 C 86 % 1008,5 hPa 0,0 l/m 0 min 0 min 132 W/m 35,4 km/h (5 Bft) 95,74 %
30.03.2023 14:22 13,9 C 13,9 C 7,8 C 85 % 1008,4 hPa 0,0 l/m 0 min 0 min 110 W/m 29,0 km/h (5 Bft) 95,65 %
30.03.2023 14:24 13,9 C 13,3 C 7,8 C 85 % 1008,4 hPa 0,0 l/m 0 min 2 min 101 W/m 22,5 km/h (4 Bft) 93,62 %
30.03.2023 14:26 13,8 C 13,3 C 7,8 C 85 % 1008,5 hPa 0,0 l/m 0 min 2 min 133 W/m 35,4 km/h (5 Bft) 95,74 %
30.03.2023 14:28 13,7 C 13,3 C 7,8 C 85 % 1008,4 hPa 0,0 l/m 0 min 2 min 138 W/m 25,7 km/h (4 Bft) 93,62 %
30.03.2023 14:30 13,6 C 13,3 C 7,2 C 85 % 1008,4 hPa 0,0 l/m 0 min 2 min 110 W/m 22,5 km/h (4 Bft) 93,62 %
30.03.2023 14:32 13,6 C 12,8 C 7,2 C 85 % 1008,4 hPa 0,0 l/m 0 min 2 min 92 W/m 22,5 km/h (4 Bft) 91,49 %
30.03.2023 14:34 13,5 C 12,8 C 7,2 C 85 % 1008,4 hPa 0,0 l/m 0 min 2 min 91 W/m 19,3 km/h (3 Bft) 95,74 %
30.03.2023 14:36 13,4 C 12,8 C 7,2 C 85 % 1008,4 hPa 0,0 l/m 0 min 0 min 94 W/m 19,3 km/h (3 Bft) 97,83 %
30.03.2023 14:38 13,4 C 12,8 C 7,2 C 85 % 1008,5 hPa 0,0 l/m 0 min 0 min 77 W/m 22,5 km/h (4 Bft) 97,87 %
30.03.2023 14:40 13,3 C 12,8 C 7,2 C 86 % 1008,4 hPa 0,0 l/m 0 min 0 min 52 W/m 12,9 km/h (3 Bft) 56,52 %
30.03.2023 14:42 13,4 C 12,8 C 7,2 C 86 % 1008,5 hPa 0,0 l/m 0 min 0 min 47 W/m 16,1 km/h (3 Bft) 97,87 %
30.03.2023 14:44 13,4 C 12,8 C 7,8 C 86 % 1008,5 hPa 0,0 l/m 0 min 0 min 49 W/m 19,3 km/h (3 Bft) 97,87 %
30.03.2023 14:46 13,4 C 12,8 C 7,8 C 86 % 1008,6 hPa 0,0 l/m 0 min 2 min 75 W/m 22,5 km/h (4 Bft) 100,00 %
30.03.2023 14:48 13,3 C 13,3 C 7,8 C 86 % 1008,5 hPa 0,0 l/m 0 min 2 min 174 W/m 29,0 km/h (5 Bft) 97,83 %
30.03.2023 14:50 13,3 C 13,3 C 7,8 C 87 % 1008,5 hPa 0,0 l/m 0 min 2 min 279 W/m 22,5 km/h (4 Bft) 100,00 %
30.03.2023 14:52 13,3 C 13,3 C 7,8 C 87 % 1008,5 hPa 0,0 l/m 0 min 0 min 260 W/m 16,1 km/h (3 Bft) 97,87 %
30.03.2023 14:54 13,3 C 13,3 C 7,8 C 87 % 1008,5 hPa 0,0 l/m 0 min 0 min 210 W/m 16,1 km/h (3 Bft) 100,00 %
30.03.2023 14:56 13,3 C 13,9 C 7,8 C 88 % 1008,5 hPa 0,0 l/m 0 min 0 min 184 W/m 12,9 km/h (3 Bft) 95,74 %
30.03.2023 14:58 13,4 C 15,0 C 7,8 C 88 % 1008,4 hPa 0,0 l/m 0 min 0 min 236 W/m 12,9 km/h (3 Bft) 97,87 %
30.03.2023 15:00 13,6 C 17,2 C 8,3 C 89 % 1008,4 hPa 0,0 l/m 2 min 0 min 733 W/m 12,9 km/h (3 Bft) 95,74 %
30.03.2023 15:02 13,8 C 18,3 C 8,3 C 89 % 1008,4 hPa 0,0 l/m 2 min 0 min 829 W/m 12,9 km/h (3 Bft) 93,62 %
30.03.2023 15:04 14,1 C 19,4 C 8,3 C 89 % 1008,3 hPa 0,0 l/m 2 min 0 min 705 W/m 16,1 km/h (3 Bft) 97,83 %
30.03.2023 15:06 14,3 C 20,6 C 8,3 C 88 % 1008,3 hPa 0,0 l/m 2 min 0 min 701 W/m 12,9 km/h (3 Bft) 93,62 %
30.03.2023 15:08 14,6 C 20,6 C 8,9 C 88 % 1008,3 hPa 0,0 l/m 2 min 0 min 710 W/m 9,7 km/h (2 Bft) 97,87 %
30.03.2023 15:10 14,8 C 19,4 C 8,9 C 87 % 1008,2 hPa 0,0 l/m 2 min 0 min 422 W/m 19,3 km/h (3 Bft) 97,87 %
30.03.2023 15:12 14,9 C 18,9 C 8,3 C 86 % 1008,2 hPa 0,0 l/m 0 min 0 min 295 W/m 12,9 km/h (3 Bft) 97,87 %
30.03.2023 15:14 15,0 C 17,8 C 8,3 C 85 % 1008,2 hPa 0,0 l/m 0 min 0 min 243 W/m 19,3 km/h (3 Bft) 97,87 %
30.03.2023 15:16 15,1 C 16,7 C 8,3 C 84 % 1008,1 hPa 0,0 l/m 0 min 0 min 190 W/m 6,4 km/h (2 Bft) 97,83 %
30.03.2023 15:18 15,1 C 16,1 C 8,9 C 83 % 1008,1 hPa 0,0 l/m 0 min 0 min 170 W/m 6,4 km/h (2 Bft) 97,87 %
30.03.2023 15:20 15,1 C 16,7 C 8,9 C 83 % 1008,1 hPa 0,0 l/m 0 min 0 min 260 W/m 12,9 km/h (3 Bft) 97,87 %
30.03.2023 15:22 15,1 C 16,7 C 8,9 C 83 % 1008,1 hPa 0,0 l/m 2 min 0 min 325 W/m 16,1 km/h (3 Bft) 97,87 %
30.03.2023 15:24 15,2 C 16,7 C 8,9 C 83 % 1008,1 hPa 0,0 l/m 2 min 0 min 326 W/m 16,1 km/h (3 Bft) 97,87 %
30.03.2023 15:26 15,3 C 17,2 C 8,9 C 82 % 1008,1 hPa 0,0 l/m 2 min 0 min 424 W/m 35,4 km/h (5 Bft) 97,87 %
30.03.2023 15:28 15,3 C 18,3 C 8,3 C 80 % 1008,1 hPa 0,0 l/m 2 min 0 min 523 W/m 38,6 km/h (5 Bft) 97,87 %
30.03.2023 15:30 15,4 C 18,9 C 8,9 C 79 % 1008,1 hPa 0,0 l/m 2 min 0 min 754 W/m 32,2 km/h (5 Bft) 95,65 %
30.03.2023 15:32 15,5 C 18,3 C 8,9 C 78 % 1008,1 hPa 0,0 l/m 2 min 0 min 754 W/m 22,5 km/h (4 Bft) 97,87 %
30.03.2023 15:34 15,6 C 19,4 C 8,9 C 79 % 1008,1 hPa 0,0 l/m 2 min 0 min 714 W/m 12,9 km/h (3 Bft) 97,87 %
30.03.2023 15:36 15,8 C 19,4 C 8,9 C 79 % 1008,1 hPa 0,0 l/m 2 min 0 min 667 W/m 25,7 km/h (4 Bft) 95,74 %
30.03.2023 15:38 15,8 C 18,9 C 8,9 C 77 % 1008,1 hPa 0,0 l/m 2 min 0 min 598 W/m 29,0 km/h (5 Bft) 97,87 %
30.03.2023 15:40 15,8 C 18,9 C 9,4 C 77 % 1008,1 hPa 0,0 l/m 2 min 0 min 677 W/m 32,2 km/h (5 Bft) 97,87 %
30.03.2023 15:42 15,7 C 17,8 C 10,0 C 76 % 1008,0 hPa 0,0 l/m 2 min 0 min 502 W/m 38,6 km/h (5 Bft) 97,87 %
30.03.2023 15:44 15,6 C 17,8 C 10,0 C 75 % 1007,9 hPa 0,0 l/m 0 min 0 min 283 W/m 32,2 km/h (5 Bft) 95,65 %
30.03.2023 15:46 15,6 C 17,2 C 10,0 C 75 % 1007,9 hPa 0,0 l/m 2 min 0 min 318 W/m 29,0 km/h (5 Bft) 95,74 %
30.03.2023 15:48 15,5 C 17,8 C 10,0 C 76 % 1007,8 hPa 0,0 l/m 2 min 0 min 444 W/m 38,6 km/h (5 Bft) 97,87 %
30.03.2023 15:50 15,5 C 17,2 C 10,0 C 75 % 1007,9 hPa 0,0 l/m 2 min 0 min 491 W/m 22,5 km/h (4 Bft) 100,00 %
30.03.2023 15:52 15,5 C 17,2 C 10,0 C 77 % 1007,9 hPa 0,0 l/m 2 min 0 min 309 W/m 16,1 km/h (3 Bft) 97,87 %
30.03.2023 15:54 15,4 C 16,7 C 10,0 C 76 % 1007,9 hPa 0,0 l/m 2 min 0 min 306 W/m 19,3 km/h (3 Bft) 100,00 %
30.03.2023 15:56 15,5 C 17,2 C 10,6 C 76 % 1007,9 hPa 0,0 l/m 2 min 0 min 563 W/m 22,5 km/h (4 Bft) 100,00 %
30.03.2023 15:58 15,6 C 17,2 C 10,6 C 77 % 1008,0 hPa 0,0 l/m 2 min 0 min 563 W/m 25,7 km/h (4 Bft) 97,83 %
30.03.2023 16:00 15,6 C 17,8 C 10,6 C 76 % 1007,9 hPa 0,0 l/m 2 min 0 min 306 W/m 22,5 km/h (4 Bft) 95,74 %
30.03.2023 16:02 15,7 C 18,9 C 11,1 C 77 % 1007,9 hPa 0,0 l/m 2 min 0 min 701 W/m 19,3 km/h (3 Bft) 97,87 %
30.03.2023 16:04 15,8 C 18,9 C 11,1 C 75 % 1008,1 hPa 0,0 l/m 2 min 0 min 692 W/m 25,7 km/h (4 Bft) 95,83 %
30.03.2023 16:06 15,9 C 18,9 C 11,1 C 75 % 1008,0 hPa 0,0 l/m 2 min 0 min 656 W/m 19,3 km/h (3 Bft) 97,87 %
30.03.2023 16:08 16,0 C 18,9 C 11,1 C 74 % 1007,9 hPa 0,0 l/m 2 min 0 min 634 W/m 45,1 km/h (6 Bft) 97,92 %
30.03.2023 16:10 16,1 C 17,8 C 11,1 C 73 % 1008,0 hPa 0,0 l/m 2 min 0 min 622 W/m 22,5 km/h (4 Bft) 97,87 %
30.03.2023 16:12 15,9 C 16,7 C 11,1 C 73 % 1008,0 hPa 0,0 l/m 2 min 0 min 338 W/m 22,5 km/h (4 Bft) 97,83 %
30.03.2023 16:14 15,8 C 17,2 C 11,1 C 73 % 1007,9 hPa 0,0 l/m 2 min 0 min 320 W/m 25,7 km/h (4 Bft) 95,74 %
30.03.2023 16:16 15,9 C 17,8 C 11,7 C 74 % 1008,0 hPa 0,0 l/m 2 min 0 min 320 W/m 29,0 km/h (5 Bft) 97,87 %
30.03.2023 16:18 16,0 C 18,9 C 11,7 C 74 % 1008,0 hPa 0,0 l/m 2 min 0 min 708 W/m 29,0 km/h (5 Bft) 97,87 %
30.03.2023 16:20 16,1 C 18,9 C 11,7 C 73 % 1008,1 hPa 0,0 l/m 2 min 0 min 672 W/m 22,5 km/h (4 Bft) 95,74 %
30.03.2023 16:22 16,2 C 18,9 C 12,2 C 73 % 1008,1 hPa 0,0 l/m 2 min 0 min 636 W/m 19,3 km/h (3 Bft) 97,87 %
30.03.2023 16:24 16,4 C 19,4 C 12,2 C 74 % 1008,1 hPa 0,0 l/m 2 min 0 min 700 W/m 51,5 km/h (7 Bft) 97,87 %
30.03.2023 16:26 16,4 C 17,8 C 12,2 C 73 % 1008,1 hPa 0,0 l/m 2 min 0 min 576 W/m 29,0 km/h (5 Bft) 97,83 %
30.03.2023 16:28 16,3 C 16,7 C 11,7 C 72 % 1008,1 hPa 0,0 l/m 0 min 0 min 204 W/m 51,5 km/h (7 Bft) 95,74 %
30.03.2023 16:30 16,1 C 16,1 C 11,7 C 71 % 1007,9 hPa 0,0 l/m 0 min 0 min 194 W/m 29,0 km/h (5 Bft) 97,87 %
30.03.2023 16:32 15,9 C 16,1 C 11,1 C 72 % 1007,9 hPa 0,0 l/m 2 min 0 min 257 W/m 29,0 km/h (5 Bft) 97,87 %
30.03.2023 16:34 15,8 C 16,1 C 11,1 C 73 % 1007,9 hPa 0,0 l/m 0 min 0 min 232 W/m 25,7 km/h (4 Bft) 97,87 %
30.03.2023 16:36 15,7 C 16,7 C 11,1 C 73 % 1007,9 hPa 0,0 l/m 0 min 0 min 237 W/m 19,3 km/h (3 Bft) 95,74 %
30.03.2023 16:38 15,7 C 17,8 C 11,7 C 72 % 1007,9 hPa 0,0 l/m 0 min 0 min 237 W/m 22,5 km/h (4 Bft) 95,74 %
30.03.2023 16:40 15,8 C 17,2 C 11,7 C 72 % 1007,8 hPa 0,0 l/m 0 min 0 min 216 W/m 16,1 km/h (3 Bft) 100,00 %
30.03.2023 16:42 15,8 C 16,7 C 11,7 C 72 % 1008,0 hPa 0,0 l/m 0 min 0 min 168 W/m 16,1 km/h (3 Bft) 95,74 %
30.03.2023 16:44 15,8 C 16,1 C 11,1 C 71 % 1007,9 hPa 0,0 l/m 0 min 0 min 190 W/m 22,5 km/h (4 Bft) 97,87 %
30.03.2023 16:46 15,8 C 16,1 C 11,1 C 71 % 1007,9 hPa 0,0 l/m 0 min 0 min 167 W/m 22,5 km/h (4 Bft) 97,87 %
30.03.2023 16:48 15,8 C 15,6 C 11,1 C 70 % 1007,8 hPa 0,0 l/m 0 min 0 min 147 W/m 16,1 km/h (3 Bft) 91,49 %
30.03.2023 16:50 15,8 C 15,6 C 11,1 C 71 % 1007,8 hPa 0,0 l/m 0 min 0 min 176 W/m 16,1 km/h (3 Bft) 97,87 %
30.03.2023 16:52 15,8 C 17,2 C 11,1 C 71 % 1007,8 hPa 0,0 l/m 2 min 0 min 240 W/m 19,3 km/h (3 Bft) 97,87 %
30.03.2023 16:54 15,9 C 17,8 C 11,7 C 72 % 1007,8 hPa 0,0 l/m 2 min 0 min 599 W/m 16,1 km/h (3 Bft) 95,65 %
30.03.2023 16:56 16,1 C 17,2 C 11,7 C 72 % 1007,8 hPa 0,0 l/m 2 min 0 min 352 W/m 29,0 km/h (5 Bft) 97,87 %
30.03.2023 16:58 16,1 C 16,7 C 11,7 C 72 % 1007,8 hPa 0,0 l/m 0 min 0 min 135 W/m 19,3 km/h (3 Bft) 97,87 %
30.03.2023 17:00 16,0 C 15,6 C 11,1 C 72 % 1007,8 hPa 0,0 l/m 0 min 0 min 101 W/m 19,3 km/h (3 Bft) 95,74 %
30.03.2023 17:02 15,8 C 15,6 C 11,1 C 72 % 1007,8 hPa 0,0 l/m 0 min 0 min 98 W/m 25,7 km/h (4 Bft) 95,74 %
30.03.2023 17:04 15,8 C 15,0 C 11,1 C 72 % 1007,8 hPa 0,0 l/m 0 min 0 min 98 W/m 25,7 km/h (4 Bft) 95,74 %
30.03.2023 17:06 15,7 C 15,0 C 11,1 C 73 % 1007,8 hPa 0,0 l/m 0 min 0 min 79 W/m 25,7 km/h (4 Bft) 95,83 %
30.03.2023 17:08 15,6 C 15,0 C 11,1 C 73 % 1007,9 hPa 0,0 l/m 0 min 0 min 44 W/m 19,3 km/h (3 Bft) 100,00 %
30.03.2023 17:10 15,6 C 14,4 C 10,6 C 74 % 1007,9 hPa 0,0 l/m 0 min 0 min 18 W/m 12,9 km/h (3 Bft) 97,87 %
30.03.2023 17:12 15,4 C 14,4 C 10,0 C 75 % 1007,9 hPa 0,0 l/m 0 min 2 min 12 W/m 12,9 km/h (3 Bft) 95,74 %
30.03.2023 17:14 15,4 C 13,9 C 8,9 C 77 % 1008,0 hPa 0,2 l/m 0 min 2 min 11 W/m 16,1 km/h (3 Bft) 97,87 %
30.03.2023 17:16 15,2 C 13,3 C 8,3 C 79 % 1008,6 hPa 0,6 l/m 0 min 2 min 16 W/m 16,1 km/h (3 Bft) 97,87 %
30.03.2023 17:18 14,4 C 10,6 C 6,7 C 79 % 1008,5 hPa 2,0 l/m 0 min 2 min 44 W/m 32,2 km/h (5 Bft) 93,62 %
30.03.2023 17:20 13,7 C 10,0 C 6,7 C 81 % 1008,4 hPa 1,2 l/m 0 min 2 min 128 W/m 25,7 km/h (4 Bft) 95,65 %
30.03.2023 17:22 13,2 C 11,1 C 7,2 C 83 % 1008,2 hPa 0,0 l/m 2 min 2 min 271 W/m 12,9 km/h (3 Bft) 97,30 %
30.03.2023 17:24 13,1 C 12,2 C 7,8 C 85 % 1008,2 hPa 0,2 l/m 2 min 2 min 508 W/m 12,9 km/h (3 Bft) 93,62 %
30.03.2023 17:26 13,2 C 12,8 C 7,8 C 87 % 1008,1 hPa 0,0 l/m 2 min 2 min 508 W/m 22,5 km/h (4 Bft) 95,74 %
30.03.2023 17:28 13,2 C 12,8 C 7,8 C 88 % 1008,1 hPa 0,0 l/m 2 min 0 min 342 W/m 12,9 km/h (3 Bft) 95,74 %
30.03.2023 17:30 13,2 C 13,9 C 7,8 C 88 % 1008,0 hPa 0,0 l/m 2 min 0 min 405 W/m 12,9 km/h (3 Bft) 93,62 %
30.03.2023 17:32 13,3 C 13,9 C 8,3 C 89 % 1008,1 hPa 0,0 l/m 2 min 0 min 378 W/m 6,4 km/h (2 Bft) 100,00 %
30.03.2023 17:34 13,4 C 14,4 C 8,3 C 90 % 1008,0 hPa 0,0 l/m 2 min 0 min 368 W/m 6,4 km/h (2 Bft) 97,83 %
30.03.2023 17:36 13,5 C 14,4 C 8,3 C 90 % 1008,0 hPa 0,0 l/m 2 min 0 min 353 W/m 12,9 km/h (3 Bft) 97,87 %
30.03.2023 17:38 13,6 C 15,0 C 8,3 C 90 % 1008,1 hPa 0,0 l/m 2 min 0 min 344 W/m 6,4 km/h (2 Bft) 97,87 %
30.03.2023 17:40 13,7 C 15,0 C 8,3 C 90 % 1008,0 hPa 0,0 l/m 2 min 0 min 335 W/m 12,9 km/h (3 Bft) 100,00 %
30.03.2023 17:42 13,7 C 16,1 C 8,3 C 90 % 1008,0 hPa 0,0 l/m 2 min 0 min 329 W/m 12,9 km/h (3 Bft) 97,87 %
30.03.2023 17:44 13,8 C 16,7 C 8,3 C 90 % 1008,0 hPa 0,0 l/m 2 min 0 min 327 W/m 6,4 km/h (2 Bft) 97,87 %
30.03.2023 17:46 13,9 C 16,7 C 8,3 C 90 % 1008,0 hPa 0,0 l/m 2 min 0 min 324 W/m 12,9 km/h (3 Bft) 95,74 %
30.03.2023 17:48 14,1 C 17,2 C 8,9 C 90 % 1008,0 hPa 0,0 l/m 2 min 0 min 320 W/m 22,5 km/h (4 Bft) 97,83 %
30.03.2023 17:50 14,1 C 16,7 C 8,3 C 89 % 1008,0 hPa 0,0 l/m 2 min 0 min 317 W/m 32,2 km/h (5 Bft) 97,87 %
30.03.2023 17:52 14,2 C 16,7 C 8,3 C 88 % 1008,0 hPa 0,0 l/m 2 min 0 min 313 W/m 16,1 km/h (3 Bft) 97,87 %
30.03.2023 17:54 14,3 C 16,7 C 8,3 C 88 % 1008,0 hPa 0,0 l/m 2 min 0 min 303 W/m 12,9 km/h (3 Bft) 97,87 %
30.03.2023 17:56 14,3 C 16,7 C 8,3 C 87 % 1008,0 hPa 0,0 l/m 2 min 0 min 286 W/m 16,1 km/h (3 Bft) 97,87 %
30.03.2023 17:58 14,3 C 16,7 C 8,3 C 87 % 1008,1 hPa 0,0 l/m 2 min 0 min 257 W/m 19,3 km/h (3 Bft) 100,00 %
30.03.2023 18:00 14,3 C 16,7 C 8,3 C 85 % 1008,0 hPa 0,0 l/m 2 min 0 min 287 W/m 45,1 km/h (6 Bft) 97,87 %
30.03.2023 18:02 14,3 C 16,1 C 7,8 C 85 % 1008,0 hPa 0,0 l/m 2 min 0 min 280 W/m 22,5 km/h (4 Bft) 97,83 %
30.03.2023 18:04 14,3 C 16,1 C 8,3 C 84 % 1008,0 hPa 0,0 l/m 2 min 0 min 275 W/m 19,3 km/h (3 Bft) 100,00 %
30.03.2023 18:07 14,3 C 15,6 C 7,8 C 84 % 1007,9 hPa 0,0 l/m 3 min 0 min 268 W/m 29,0 km/h (5 Bft) 94,29 %
30.03.2023 18:08 14,3 C 15,0 C 7,8 C 84 % 1007,9 hPa 0,0 l/m 1 min 0 min 258 W/m 12,9 km/h (3 Bft) 100,00 %
30.03.2023 18:12 14,3 C 15,0 C 7,8 C 84 % 1007,8 hPa 0,0 l/m 4 min 0 min 236 W/m 12,9 km/h (3 Bft) 98,08 %
30.03.2023 18:14 14,3 C 15,0 C 7,8 C 84 % 1007,7 hPa 0,0 l/m 2 min 0 min 232 W/m 16,1 km/h (3 Bft) 95,65 %
30.03.2023 18:16 14,3 C 15,0 C 7,8 C 84 % 1007,7 hPa 0,0 l/m 2 min 0 min 228 W/m 22,5 km/h (4 Bft) 95,74 %
30.03.2023 18:18 14,3 C 15,0 C 7,8 C 84 % 1007,7 hPa 0,0 l/m 2 min 0 min 191 W/m 19,3 km/h (3 Bft) 95,74 %
30.03.2023 18:20 14,3 C 14,4 C 7,8 C 83 % 1007,7 hPa 0,0 l/m 2 min 0 min 132 W/m 16,1 km/h (3 Bft) 91,49 %
30.03.2023 18:22 14,3 C 13,9 C 7,8 C 83 % 1007,8 hPa 0,0 l/m 0 min 0 min 44 W/m 16,1 km/h (3 Bft) 95,74 %
30.03.2023 18:24 14,3 C 13,9 C 7,8 C 83 % 1007,8 hPa 0,0 l/m 0 min 0 min 35 W/m 16,1 km/h (3 Bft) 95,74 %
30.03.2023 18:26 14,2 C 13,3 C 7,8 C 83 % 1007,8 hPa 0,0 l/m 0 min 0 min 35 W/m 12,9 km/h (3 Bft) 95,74 %
30.03.2023 18:28 14,1 C 13,3 C 7,8 C 83 % 1007,9 hPa 0,0 l/m 0 min 0 min 41 W/m 16,1 km/h (3 Bft) 93,48 %
30.03.2023 18:30 14,1 C 13,3 C 7,8 C 83 % 1007,9 hPa 0,0 l/m 0 min 0 min 40 W/m 6,4 km/h (2 Bft) 97,87 %
30.03.2023 18:32 14,0 C 12,8 C 7,8 C 84 % 1007,9 hPa 0,0 l/m 0 min 0 min 34 W/m 12,9 km/h (3 Bft) 95,74 %
30.03.2023 18:34 13,9 C 12,8 C 7,2 C 84 % 1008,0 hPa 0,0 l/m 0 min 0 min 31 W/m 12,9 km/h (3 Bft) 95,74 %
30.03.2023 18:36 13,9 C 12,8 C 7,2 C 84 % 1008,0 hPa 0,0 l/m 0 min 2 min 32 W/m 22,5 km/h (4 Bft) 95,74 %
30.03.2023 18:38 13,8 C 12,2 C 7,2 C 84 % 1008,0 hPa 0,0 l/m 0 min 2 min 36 W/m 16,1 km/h (3 Bft) 95,74 %
30.03.2023 18:40 13,7 C 12,2 C 7,2 C 85 % 1008,1 hPa 0,2 l/m 0 min 2 min 32 W/m 12,9 km/h (3 Bft) 93,48 %
30.03.2023 18:42 13,7 C 12,2 C 7,2 C 86 % 1008,1 hPa 0,0 l/m 0 min 2 min 28 W/m 12,9 km/h (3 Bft) 95,74 %
30.03.2023 18:44 13,6 C 12,2 C 7,8 C 86 % 1008,2 hPa 0,0 l/m 0 min 2 min 28 W/m 19,3 km/h (3 Bft) 95,74 %
30.03.2023 18:46 13,5 C 12,2 C 7,2 C 87 % 1008,1 hPa 0,0 l/m 0 min 2 min 29 W/m 12,9 km/h (3 Bft) 95,74 %
30.03.2023 18:48 13,4 C 12,2 C 7,2 C 87 % 1008,2 hPa 0,0 l/m 0 min 2 min 26 W/m 16,1 km/h (3 Bft) 95,74 %
30.03.2023 18:50 13,3 C 11,7 C 7,2 C 87 % 1008,2 hPa 0,0 l/m 0 min 2 min 25 W/m 22,5 km/h (4 Bft) 91,49 %
30.03.2023 18:52 13,2 C 11,7 C 7,2 C 88 % 1008,2 hPa 0,2 l/m 0 min 2 min 28 W/m 22,5 km/h (4 Bft) 97,87 %
30.03.2023 18:54 13,1 C 11,7 C 7,2 C 88 % 1008,3 hPa 0,2 l/m 0 min 2 min 52 W/m 25,7 km/h (4 Bft) 97,83 %
30.03.2023 18:56 12,9 C 11,7 C 7,2 C 89 % 1008,1 hPa 0,0 l/m 2 min 2 min 83 W/m 16,1 km/h (3 Bft) 97,87 %
30.03.2023 18:58 12,8 C 11,7 C 7,2 C 89 % 1008,0 hPa 0,0 l/m 2 min 2 min 83 W/m 12,9 km/h (3 Bft) 95,74 %
30.03.2023 19:00 12,7 C 11,7 C 7,2 C 90 % 1008,1 hPa 0,2 l/m 0 min 0 min 77 W/m 12,9 km/h (3 Bft) 97,87 %
30.03.2023 19:02 12,7 C 11,7 C 7,2 C 90 % 1008,0 hPa 0,0 l/m 0 min 0 min 74 W/m 16,1 km/h (3 Bft) 100,00 %
30.03.2023 19:04 12,6 C 11,7 C 7,2 C 91 % 1008,0 hPa 0,0 l/m 2 min 0 min 78 W/m 12,9 km/h (3 Bft) 100,00 %
30.03.2023 19:06 12,5 C 11,7 C 7,2 C 91 % 1008,1 hPa 0,0 l/m 2 min 0 min 75 W/m 16,1 km/h (3 Bft) 100,00 %
30.03.2023 19:08 12,5 C 11,7 C 7,2 C 91 % 1008,1 hPa 0,0 l/m 0 min 0 min 64 W/m 12,9 km/h (3 Bft) 100,00 %
30.03.2023 19:10 12,4 C 11,7 C 7,2 C 91 % 1008,1 hPa 0,0 l/m 0 min 0 min 47 W/m 12,9 km/h (3 Bft) 100,00 %
30.03.2023 19:12 12,4 C 11,7 C 7,2 C 91 % 1008,2 hPa 0,0 l/m 0 min 0 min 41 W/m 16,1 km/h (3 Bft) 95,74 %
30.03.2023 19:14 12,3 C 11,7 C 7,2 C 92 % 1008,2 hPa 0,0 l/m 0 min 0 min 42 W/m 16,1 km/h (3 Bft) 100,00 %
30.03.2023 19:16 12,3 C 11,7 C 7,2 C 92 % 1008,2 hPa 0,0 l/m 0 min 0 min 49 W/m 12,9 km/h (3 Bft) 100,00 %
30.03.2023 19:18 12,3 C 11,7 C 7,2 C 92 % 1008,2 hPa 0,0 l/m 0 min 0 min 52 W/m 12,9 km/h (3 Bft) 97,87 %
30.03.2023 19:20 12,3 C 11,7 C 7,2 C 92 % 1008,2 hPa 0,0 l/m 0 min 0 min 48 W/m 22,5 km/h (4 Bft) 100,00 %
30.03.2023 19:22 12,3 C 11,7 C 7,2 C 92 % 1008,1 hPa 0,0 l/m 0 min 0 min 47 W/m 29,0 km/h (5 Bft) 100,00 %
30.03.2023 19:24 12,3 C 11,7 C 7,2 C 92 % 1008,2 hPa 0,0 l/m 0 min 0 min 43 W/m 16,1 km/h (3 Bft) 100,00 %
30.03.2023 19:26 12,3 C 11,7 C 7,2 C 92 % 1008,1 hPa 0,0 l/m 0 min 0 min 42 W/m 9,7 km/h (2 Bft) 100,00 %
30.03.2023 19:28 12,3 C 11,7 C 7,2 C 92 % 1008,1 hPa 0,0 l/m 0 min 0 min 34 W/m 9,7 km/h (2 Bft) 100,00 %
30.03.2023 19:30 12,3 C 11,7 C 7,2 C 92 % 1008,1 hPa 0,0 l/m 0 min 0 min 21 W/m 9,7 km/h (2 Bft) 100,00 %
30.03.2023 19:32 12,3 C 11,1 C 7,2 C 92 % 1008,1 hPa 0,0 l/m 0 min 0 min 19 W/m 6,4 km/h (2 Bft) 100,00 %
30.03.2023 19:34 12,2 C 11,1 C 7,2 C 92 % 1008,1 hPa 0,0 l/m 0 min 0 min 18 W/m 6,4 km/h (2 Bft) 100,00 %
30.03.2023 19:36 12,2 C 11,1 C 7,2 C 92 % 1008,2 hPa 0,0 l/m 0 min 0 min 17 W/m 6,4 km/h (2 Bft) 100,00 %
30.03.2023 19:38 12,2 C 11,1 C 7,2 C 92 % 1008,2 hPa 0,0 l/m 0 min 0 min 15 W/m 6,4 km/h (2 Bft) 100,00 %
30.03.2023 19:40 12,2 C 11,1 C 7,2 C 92 % 1008,2 hPa 0,0 l/m 0 min 0 min 13 W/m 9,7 km/h (2 Bft) 100,00 %
30.03.2023 19:42 12,1 C 11,1 C 7,2 C 92 % 1008,2 hPa 0,0 l/m 0 min 0 min 12 W/m 12,9 km/h (3 Bft) 97,87 %
30.03.2023 19:44 12,1 C 11,1 C 6,7 C 92 % 1008,2 hPa 0,0 l/m 0 min 0 min 11 W/m 9,7 km/h (2 Bft) 93,62 %
30.03.2023 19:46 12,1 C 11,1 C 6,7 C 92 % 1008,3 hPa 0,0 l/m 0 min 0 min 11 W/m 3,2 km/h (1 Bft) 97,87 %
30.03.2023 19:48 12,1 C 11,1 C 6,7 C 92 % 1008,3 hPa 0,0 l/m 0 min 0 min 11 W/m 3,2 km/h (1 Bft) 95,65 %
30.03.2023 19:50 12,1 C 11,1 C 6,7 C 92 % 1008,3 hPa 0,0 l/m 0 min 0 min 11 W/m 6,4 km/h (2 Bft) 97,87 %
30.03.2023 19:52 12,1 C 11,1 C 6,7 C 92 % 1008,4 hPa 0,0 l/m 0 min 0 min 12 W/m 16,1 km/h (3 Bft) 97,87 %
30.03.2023 19:54 12,0 C 11,1 C 6,7 C 92 % 1008,4 hPa 0,0 l/m 0 min 0 min 14 W/m 12,9 km/h (3 Bft) 97,87 %
30.03.2023 19:56 12,0 C 11,1 C 6,7 C 92 % 1008,4 hPa 0,0 l/m 0 min 0 min 13 W/m 6,4 km/h (2 Bft) 97,87 %
30.03.2023 19:58 12,0 C 11,1 C 6,7 C 92 % 1008,4 hPa 0,0 l/m 0 min 0 min 11 W/m 9,7 km/h (2 Bft) 95,74 %
30.03.2023 20:00 12,0 C 11,1 C 6,7 C 92 % 1008,4 hPa 0,0 l/m 0 min 0 min 6 W/m 12,9 km/h (3 Bft) 91,49 %
30.03.2023 20:02 11,9 C 11,1 C 6,7 C 92 % 1008,4 hPa 0,0 l/m 0 min 0 min 4 W/m 12,9 km/h (3 Bft) 97,83 %
30.03.2023 20:04 11,9 C 11,1 C 6,7 C 92 % 1008,4 hPa 0,0 l/m 0 min 0 min 0 W/m 6,4 km/h (2 Bft) 97,87 %
30.03.2023 20:06 11,9 C 11,1 C 6,7 C 92 % 1008,3 hPa 0,0 l/m 0 min 0 min 0 W/m 6,4 km/h (2 Bft) 97,87 %
30.03.2023 20:08 11,9 C 11,1 C 6,7 C 92 % 1008,3 hPa 0,0 l/m 0 min 0 min 0 W/m 3,2 km/h (1 Bft) 95,74 %
30.03.2023 20:10 11,9 C 10,6 C 6,7 C 92 % 1008,3 hPa 0,0 l/m 0 min 0 min 0 W/m 6,4 km/h (2 Bft) 97,87 %
30.03.2023 20:12 11,9 C 10,6 C 6,7 C 92 % 1008,3 hPa 0,0 l/m 0 min 0 min 0 W/m 3,2 km/h (1 Bft) 95,74 %
30.03.2023 20:14 11,8 C 10,6 C 6,7 C 92 % 1008,3 hPa 0,0 l/m 0 min 0 min 0 W/m 3,2 km/h (1 Bft) 95,74 %
30.03.2023 20:16 11,8 C 10,6 C 6,7 C 92 % 1008,3 hPa 0,0 l/m 0 min 0 min 0 W/m 3,2 km/h (1 Bft) 89,13 %
30.03.2023 20:18 11,8 C 10,6 C 6,7 C 92 % 1008,3 hPa 0,0 l/m 0 min 0 min 0 W/m 3,2 km/h (1 Bft) 93,62 %
30.03.2023 20:20 11,8 C 10,6 C 6,7 C 92 % 1008,3 hPa 0,0 l/m 0 min 0 min 0 W/m 3,2 km/h (1 Bft) 93,62 %
30.03.2023 20:22 11,8 C 10,6 C 6,7 C 92 % 1008,3 hPa 0,0 l/m 0 min 0 min 0 W/m 6,4 km/h (2 Bft) 95,74 %
30.03.2023 20:24 11,8 C 10,6 C 6,7 C 92 % 1008,3 hPa 0,0 l/m 0 min 0 min 0 W/m 6,4 km/h (2 Bft) 95,74 %
30.03.2023 20:26 11,8 C 10,6 C 6,7 C 92 % 1008,3 hPa 0,0 l/m 0 min 0 min 0 W/m 6,4 km/h (2 Bft) 95,74 %
30.03.2023 20:28 11,8 C 10,6 C 6,7 C 92 % 1008,3 hPa 0,0 l/m 0 min 0 min 0 W/m 3,2 km/h (1 Bft) 91,30 %
30.03.2023 20:30 11,8 C 10,6 C 6,7 C 92 % 1008,3 hPa 0,0 l/m 0 min 0 min 0 W/m 6,4 km/h (2 Bft) 95,74 %
30.03.2023 20:32 11,8 C 10,6 C 6,7 C 93 % 1008,3 hPa 0,0 l/m 0 min 0 min 0 W/m 9,7 km/h (2 Bft) 95,74 %
30.03.2023 20:34 11,7 C 10,6 C 6,7 C 93 % 1008,3 hPa 0,0 l/m 0 min 0 min 0 W/m 9,7 km/h (2 Bft) 91,49 %
30.03.2023 20:36 11,7 C 10,6 C 6,7 C 93 % 1008,3 hPa 0,0 l/m 0 min 0 min 0 W/m 9,7 km/h (2 Bft) 93,62 %
30.03.2023 20:38 11,7 C 10,6 C 6,7 C 93 % 1008,4 hPa 0,0 l/m 0 min 0 min 0 W/m 22,5 km/h (4 Bft) 97,87 %
30.03.2023 20:40 11,7 C 11,1 C 6,7 C 93 % 1008,3 hPa 0,0 l/m 0 min 0 min 0 W/m 12,9 km/h (3 Bft) 97,87 %
30.03.2023 20:42 11,7 C 11,1 C 6,7 C 93 % 1008,3 hPa 0,0 l/m 0 min 0 min 0 W/m 16,1 km/h (3 Bft) 97,83 %
30.03.2023 20:44 11,7 C 11,1 C 6,7 C 92 % 1008,4 hPa 0,0 l/m 0 min 0 min 0 W/m 16,1 km/h (3 Bft) 97,87 %
30.03.2023 20:46 11,7 C 11,1 C 6,7 C 92 % 1008,3 hPa 0,0 l/m 0 min 0 min 0 W/m 12,9 km/h (3 Bft) 95,74 %
30.03.2023 20:48 11,7 C 11,1 C 6,7 C 92 % 1008,3 hPa 0,0 l/m 0 min 0 min 0 W/m 9,7 km/h (2 Bft) 97,87 %
30.03.2023 20:50 11,7 C 11,1 C 6,7 C 92 % 1008,3 hPa 0,0 l/m 0 min 0 min 0 W/m 16,1 km/h (3 Bft) 97,87 %
30.03.2023 20:52 11,7 C 11,1 C 6,7 C 92 % 1008,2 hPa 0,0 l/m 0 min 0 min 0 W/m 12,9 km/h (3 Bft) 97,87 %
30.03.2023 20:54 11,7 C 11,1 C 6,7 C 92 % 1008,3 hPa 0,0 l/m 0 min 0 min 0 W/m 16,1 km/h (3 Bft) 95,92 %
30.03.2023 20:56 11,8 C 11,1 C 6,7 C 92 % 1008,3 hPa 0,0 l/m 0 min 0 min 0 W/m 19,3 km/h (3 Bft) 97,87 %
30.03.2023 20:58 11,8 C 11,1 C 6,7 C 92 % 1008,3 hPa 0,0 l/m 0 min 0 min 0 W/m 16,1 km/h (3 Bft) 97,87 %
30.03.2023 21:00 11,8 C 11,1 C 6,7 C 92 % 1008,4 hPa 0,0 l/m 0 min 0 min 0 W/m 16,1 km/h (3 Bft) 97,87 %
30.03.2023 21:02 11,8 C 11,1 C 6,7 C 92 % 1008,3 hPa 0,0 l/m 0 min 0 min 0 W/m 9,7 km/h (2 Bft) 95,74 %
30.03.2023 21:04 11,8 C 11,1 C 6,7 C 92 % 1008,3 hPa 0,0 l/m 0 min 0 min 0 W/m 12,9 km/h (3 Bft) 95,83 %
30.03.2023 21:06 11,8 C 11,1 C 6,7 C 91 % 1008,3 hPa 0,0 l/m 0 min 0 min 0 W/m 16,1 km/h (3 Bft) 97,87 %
30.03.2023 21:08 11,8 C 11,1 C 6,7 C 91 % 1008,3 hPa 0,0 l/m 0 min 0 min 0 W/m 12,9 km/h (3 Bft) 97,83 %
30.03.2023 21:10 11,8 C 11,1 C 6,7 C 91 % 1008,3 hPa 0,0 l/m 0 min 0 min 0 W/m 16,1 km/h (3 Bft) 97,87 %
30.03.2023 21:12 11,8 C 11,1 C 6,7 C 91 % 1008,3 hPa 0,0 l/m 0 min 0 min 0 W/m 16,1 km/h (3 Bft) 97,87 %
30.03.2023 21:14 11,9 C 11,1 C 6,7 C 91 % 1008,3 hPa 0,0 l/m 0 min 0 min 0 W/m 16,1 km/h (3 Bft) 97,87 %
30.03.2023 21:16 11,9 C 11,1 C 6,7 C 91 % 1008,3 hPa 0,0 l/m 0 min 0 min 0 W/m 16,1 km/h (3 Bft) 95,74 %
30.03.2023 21:18 11,9 C 11,7 C 6,7 C 90 % 1008,3 hPa 0,0 l/m 0 min 0 min 0 W/m 22,5 km/h (4 Bft) 95,74 %
30.03.2023 21:20 11,9 C 11,7 C 6,7 C 90 % 1008,3 hPa 0,0 l/m 0 min 0 min 0 W/m 25,7 km/h (4 Bft) 97,62 %
30.03.2023 21:22 12,0 C 11,7 C 6,7 C 90 % 1008,3 hPa 0,0 l/m 0 min 0 min 0 W/m 12,9 km/h (3 Bft) 97,83 %
30.03.2023 21:24 12,1 C 11,7 C 6,7 C 90 % 1008,3 hPa 0,0 l/m 0 min 0 min 0 W/m 19,3 km/h (3 Bft) 100,00 %
30.03.2023 21:26 12,1 C 11,7 C 6,7 C 90 % 1008,3 hPa 0,0 l/m 0 min 0 min 0 W/m 22,5 km/h (4 Bft) 100,00 %
30.03.2023 21:28 12,1 C 11,7 C 6,7 C 89 % 1008,2 hPa 0,0 l/m 0 min 0 min 0 W/m 19,3 km/h (3 Bft) 100,00 %
30.03.2023 21:30 12,1 C 11,7 C 6,7 C 89 % 1008,3 hPa 0,0 l/m 0 min 0 min 0 W/m 22,5 km/h (4 Bft) 100,00 %
30.03.2023 21:32 12,1 C 11,7 C 6,7 C 89 % 1008,3 hPa 0,0 l/m 0 min 0 min 0 W/m 19,3 km/h (3 Bft) 100,00 %
30.03.2023 21:34 12,1 C 11,7 C 6,7 C 89 % 1008,2 hPa 0,0 l/m 0 min 0 min 0 W/m 16,1 km/h (3 Bft) 100,00 %
30.03.2023 21:36 12,1 C 11,7 C 6,7 C 89 % 1008,2 hPa 0,0 l/m 0 min 0 min 0 W/m 22,5 km/h (4 Bft) 100,00 %
30.03.2023 21:38 12,1 C 11,7 C 6,1 C 88 % 1008,2 hPa 0,0 l/m 0 min 0 min 0 W/m 16,1 km/h (3 Bft) 100,00 %
30.03.2023 21:40 12,1 C 11,1 C 6,1 C 88 % 1008,2 hPa 0,0 l/m 0 min 0 min 0 W/m 19,3 km/h (3 Bft) 100,00 %
30.03.2023 21:42 12,1 C 11,1 C 6,1 C 88 % 1008,1 hPa 0,0 l/m 0 min 0 min 0 W/m 16,1 km/h (3 Bft) 100,00 %
30.03.2023 21:44 12,1 C 11,1 C 6,1 C 88 % 1008,2 hPa 0,0 l/m 0 min 0 min 0 W/m 16,1 km/h (3 Bft) 97,87 %
30.03.2023 21:46 12,1 C 11,1 C 6,1 C 88 % 1008,2 hPa 0,0 l/m 0 min 0 min 0 W/m 16,1 km/h (3 Bft) 100,00 %
30.03.2023 21:48 12,1 C 11,1 C 6,1 C 88 % 1008,2 hPa 0,0 l/m 0 min 0 min 0 W/m 9,7 km/h (2 Bft) 100,00 %
30.03.2023 21:50 12,1 C 11,1 C 6,1 C 88 % 1008,2 hPa 0,0 l/m 0 min 0 min 0 W/m 12,9 km/h (3 Bft) 98,00 %
30.03.2023 21:52 12,1 C 11,1 C 6,1 C 88 % 1008,3 hPa 0,0 l/m 0 min 0 min 0 W/m 12,9 km/h (3 Bft) 100,00 %
30.03.2023 21:54 12,1 C 11,1 C 6,1 C 88 % 1008,2 hPa 0,0 l/m 0 min 0 min 0 W/m 12,9 km/h (3 Bft) 100,00 %
30.03.2023 21:56 12,0 C 11,1 C 6,1 C 88 % 1008,2 hPa 0,0 l/m 0 min 0 min 0 W/m 9,7 km/h (2 Bft) 100,00 %
30.03.2023 21:58 12,0 C 10,6 C 6,1 C 88 % 1008,2 hPa 0,0 l/m 0 min 0 min 0 W/m 12,9 km/h (3 Bft) 97,87 %
30.03.2023 22:00 11,9 C 10,6 C 6,1 C 88 % 1008,2 hPa 0,0 l/m 0 min 0 min 0 W/m 12,9 km/h (3 Bft) 95,65 %
30.03.2023 22:02 11,9 C 10,6 C 6,1 C 88 % 1008,1 hPa 0,0 l/m 0 min 0 min 0 W/m 12,9 km/h (3 Bft) 97,92 %
30.03.2023 22:04 11,9 C 10,6 C 6,1 C 88 % 1008,1 hPa 0,0 l/m 0 min 0 min 0 W/m 16,1 km/h (3 Bft) 97,87 %
30.03.2023 22:06 11,9 C 10,6 C 6,1 C 88 % 1008,1 hPa 0,0 l/m 0 min 0 min 0 W/m 12,9 km/h (3 Bft) 97,87 %
30.03.2023 22:08 11,8 C 10,6 C 6,1 C 88 % 1008,1 hPa 0,0 l/m 0 min 0 min 0 W/m 12,9 km/h (3 Bft) 97,87 %
30.03.2023 22:10 11,8 C 10,6 C 6,1 C 88 % 1008,1 hPa 0,0 l/m 0 min 0 min 0 W/m 16,1 km/h (3 Bft) 97,87 %
30.03.2023 22:12 11,8 C 10,6 C 6,1 C 88 % 1008,0 hPa 0,0 l/m 0 min 0 min 0 W/m 19,3 km/h (3 Bft) 95,74 %
30.03.2023 22:14 11,7 C 10,6 C 6,1 C 88 % 1008,0 hPa 0,0 l/m 0 min 0 min 0 W/m 12,9 km/h (3 Bft) 97,87 %
30.03.2023 22:16 11,7 C 10,6 C 6,1 C 88 % 1008,1 hPa 0,0 l/m 0 min 0 min 0 W/m 16,1 km/h (3 Bft) 97,83 %
30.03.2023 22:18 11,7 C 10,6 C 6,1 C 88 % 1008,0 hPa 0,0 l/m 0 min 0 min 0 W/m 16,1 km/h (3 Bft) 97,87 %
30.03.2023 22:20 11,7 C 10,6 C 6,1 C 88 % 1008,0 hPa 0,0 l/m 0 min 0 min 0 W/m 16,1 km/h (3 Bft) 97,87 %
30.03.2023 22:22 11,6 C 10,6 C 6,1 C 88 % 1008,0 hPa 0,0 l/m 0 min 0 min 0 W/m 12,9 km/h (3 Bft) 95,74 %
30.03.2023 22:24 11,6 C 10,6 C 6,1 C 88 % 1008,0 hPa 0,0 l/m 0 min 0 min 0 W/m 16,1 km/h (3 Bft) 97,87 %
30.03.2023 22:26 11,6 C 10,6 C 6,1 C 88 % 1007,9 hPa 0,0 l/m 0 min 0 min 0 W/m 19,3 km/h (3 Bft) 97,87 %
30.03.2023 22:28 11,6 C 10,6 C 6,1 C 88 % 1007,9 hPa 0,0 l/m 0 min 0 min 0 W/m 12,9 km/h (3 Bft) 97,87 %
30.03.2023 22:30 11,6 C 10,6 C 6,1 C 88 % 1008,0 hPa 0,0 l/m 0 min 0 min 0 W/m 6,4 km/h (2 Bft) 100,00 %
30.03.2023 22:32 11,6 C 10,6 C 6,1 C 88 % 1008,0 hPa 0,0 l/m 0 min 0 min 0 W/m 12,9 km/h (3 Bft) 97,87 %
30.03.2023 22:34 11,5 C 10,6 C 6,1 C 88 % 1008,0 hPa 0,0 l/m 0 min 0 min 0 W/m 12,9 km/h (3 Bft) 100,00 %
30.03.2023 22:36 11,5 C 10,6 C 6,1 C 88 % 1008,0 hPa 0,0 l/m 0 min 0 min 0 W/m 16,1 km/h (3 Bft) 100,00 %
30.03.2023 22:38 11,4 C 10,6 C 6,1 C 88 % 1008,0 hPa 0,0 l/m 0 min 0 min 0 W/m 12,9 km/h (3 Bft) 100,00 %
30.03.2023 22:40 11,4 C 10,6 C 6,1 C 88 % 1008,0 hPa 0,0 l/m 0 min 0 min 0 W/m 16,1 km/h (3 Bft) 100,00 %
30.03.2023 22:42 11,4 C 10,6 C 6,1 C 88 % 1008,0 hPa 0,0 l/m 0 min 0 min 0 W/m 12,9 km/h (3 Bft) 100,00 %
30.03.2023 22:44 11,4 C 10,6 C 6,1 C 88 % 1008,0 hPa 0,0 l/m 0 min 0 min 0 W/m 19,3 km/h (3 Bft) 100,00 %
30.03.2023 22:46 11,4 C 10,6 C 6,1 C 88 % 1008,1 hPa 0,0 l/m 0 min 0 min 0 W/m 16,1 km/h (3 Bft) 100,00 %
30.03.2023 22:48 11,3 C 10,6 C 6,1 C 88 % 1008,0 hPa 0,0 l/m 0 min 0 min 0 W/m 19,3 km/h (3 Bft) 100,00 %
30.03.2023 22:50 11,3 C 10,6 C 6,1 C 88 % 1007,9 hPa 0,0 l/m 0 min 0 min 0 W/m 16,1 km/h (3 Bft) 97,87 %
30.03.2023 22:52 11,3 C 10,0 C 6,1 C 88 % 1007,9 hPa 0,0 l/m 0 min 0 min 0 W/m 3,2 km/h (1 Bft) 97,87 %
30.03.2023 22:54 11,3 C 10,0 C 6,1 C 88 % 1007,9 hPa 0,0 l/m 0 min 0 min 0 W/m 6,4 km/h (2 Bft) 93,62 %
30.03.2023 22:56 11,2 C 10,0 C 6,1 C 88 % 1007,9 hPa 0,0 l/m 0 min 0 min 0 W/m 6,4 km/h (2 Bft) 97,14 %
30.03.2023 22:58 11,2 C 10,0 C 6,1 C 88 % 1008,0 hPa 0,0 l/m 0 min 0 min 0 W/m 12,9 km/h (3 Bft) 98,18 %
30.03.2023 23:00 11,2 C 10,0 C 6,1 C 88 % 1007,9 hPa 0,0 l/m 0 min 0 min 0 W/m 6,4 km/h (2 Bft) 95,74 %
30.03.2023 23:02 11,2 C 10,0 C 6,1 C 88 % 1007,9 hPa 0,0 l/m 0 min 0 min 0 W/m 9,7 km/h (2 Bft) 95,74 %
30.03.2023 23:04 11,1 C 10,0 C 6,1 C 88 % 1007,9 hPa 0,0 l/m 0 min 0 min 0 W/m 12,9 km/h (3 Bft) 95,74 %
30.03.2023 23:06 11,1 C 10,0 C 6,1 C 88 % 1007,8 hPa 0,0 l/m 0 min 0 min 0 W/m 9,7 km/h (2 Bft) 95,74 %
30.03.2023 23:08 11,1 C 10,0 C 6,1 C 89 % 1007,8 hPa 0,0 l/m 0 min 0 min 0 W/m 12,9 km/h (3 Bft) 95,65 %
30.03.2023 23:10 11,1 C 10,0 C 6,1 C 89 % 1007,7 hPa 0,0 l/m 0 min 0 min 0 W/m 12,9 km/h (3 Bft) 93,62 %
30.03.2023 23:12 11,0 C 10,0 C 6,1 C 89 % 1007,7 hPa 0,0 l/m 0 min 0 min 0 W/m 12,9 km/h (3 Bft) 93,62 %
30.03.2023 23:14 10,9 C 10,0 C 6,1 C 89 % 1007,7 hPa 0,0 l/m 0 min 0 min 0 W/m 9,7 km/h (2 Bft) 95,83 %
30.03.2023 23:16 10,9 C 10,0 C 6,1 C 89 % 1007,7 hPa 0,0 l/m 0 min 0 min 0 W/m 16,1 km/h (3 Bft) 91,49 %
30.03.2023 23:18 10,9 C 10,0 C 6,1 C 89 % 1007,6 hPa 0,0 l/m 0 min 0 min 0 W/m 12,9 km/h (3 Bft) 96,00 %
30.03.2023 23:20 10,9 C 10,0 C 6,1 C 89 % 1007,6 hPa 0,0 l/m 0 min 0 min 0 W/m 16,1 km/h (3 Bft) 95,74 %
30.03.2023 23:22 10,9 C 10,0 C 6,1 C 89 % 1007,6 hPa 0,0 l/m 0 min 0 min 0 W/m 6,4 km/h (2 Bft) 95,65 %
30.03.2023 23:24 10,9 C 10,0 C 6,1 C 89 % 1007,6 hPa 0,0 l/m 0 min 0 min 0 W/m 12,9 km/h (3 Bft) 95,74 %
30.03.2023 23:26 10,9 C 10,0 C 6,1 C 89 % 1007,6 hPa 0,0 l/m 0 min 0 min 0 W/m 12,9 km/h (3 Bft) 93,62 %
30.03.2023 23:28 10,8 C 10,0 C 6,1 C 89 % 1007,6 hPa 0,0 l/m 0 min 0 min 0 W/m 9,7 km/h (2 Bft) 95,74 %
30.03.2023 23:30 10,8 C 10,0 C 6,1 C 89 % 1007,6 hPa 0,0 l/m 0 min 0 min 0 W/m 19,3 km/h (3 Bft) 95,74 %
30.03.2023 23:32 10,8 C 10,0 C 6,1 C 90 % 1007,6 hPa 0,0 l/m 0 min 0 min 0 W/m 12,9 km/h (3 Bft) 95,74 %
30.03.2023 23:34 10,8 C 10,0 C 6,1 C 90 % 1007,6 hPa 0,0 l/m 0 min 0 min 0 W/m 6,4 km/h (2 Bft) 94,29 %
30.03.2023 23:36 10,8 C 10,0 C 6,1 C 90 % 1007,6 hPa 0,0 l/m 0 min 0 min 0 W/m 6,4 km/h (2 Bft) 93,62 %
30.03.2023 23:38 10,7 C 9,4 C 6,1 C 90 % 1007,5 hPa 0,0 l/m 0 min 0 min 0 W/m 9,7 km/h (2 Bft) 95,74 %
30.03.2023 23:40 10,7 C 9,4 C 6,1 C 90 % 1007,5 hPa 0,0 l/m 0 min 0 min 0 W/m 6,4 km/h (2 Bft) 93,62 %
30.03.2023 23:42 10,7 C 9,4 C 6,1 C 90 % 1007,5 hPa 0,0 l/m 0 min 0 min 0 W/m 16,1 km/h (3 Bft) 97,83 %
30.03.2023 23:44 10,7 C 9,4 C 6,1 C 90 % 1007,5 hPa 0,0 l/m 0 min 0 min 0 W/m 12,9 km/h (3 Bft) 95,74 %
30.03.2023 23:46 10,7 C 9,4 C 6,1 C 90 % 1007,4 hPa 0,0 l/m 0 min 0 min 0 W/m 9,7 km/h (2 Bft) 97,87 %
30.03.2023 23:48 10,6 C 9,4 C 6,1 C 90 % 1007,4 hPa 0,0 l/m 0 min 0 min 0 W/m 9,7 km/h (2 Bft) 93,62 %
30.03.2023 23:50 10,6 C 9,4 C 6,1 C 90 % 1007,4 hPa 0,0 l/m 0 min 0 min 0 W/m 12,9 km/h (3 Bft) 95,74 %
30.03.2023 23:52 10,6 C 9,4 C 6,1 C 90 % 1007,3 hPa 0,0 l/m 0 min 0 min 0 W/m 12,9 km/h (3 Bft) 97,87 %
30.03.2023 23:54 10,6 C 9,4 C 6,1 C 90 % 1007,3 hPa 0,0 l/m 0 min 0 min 0 W/m 12,9 km/h (3 Bft) 95,74 %
30.03.2023 23:56 10,6 C 9,4 C 6,1 C 90 % 1007,3 hPa 0,0 l/m 0 min 0 min 0 W/m 6,4 km/h (2 Bft) 97,83 %
30.03.2023 23:58 10,6 C 9,4 C 6,1 C 90 % 1007,3 hPa 0,0 l/m 0 min 0 min 0 W/m 6,4 km/h (2 Bft) 95,74 %
_ Min-Zeit 23:48 23:38 21:38 16:48 06:44 - - - - 06:12 08:12
Minimum _ 10,6 C 9,4 C 6,1 C 70 % 1005,8 hPa - - - - 0,0 km/h (0 Bft) 36,17 %
_ Max-Zeit 16:24 12:50 12:46 20:32 00:00 17:18 18:12 09:30 12:56 16:24 00:02
Maximum _ 16,4 C 22,2 C 13,9 C 93 % 1008,8 hPa 2,0 l/m 4 min 2 min 846 W/m 51,5 km/h
S (7 Bft)
100,00 %
Durchschnitt _ 13,3 C 13,1 C 8,3 C 82 % 1007,5 hPa #6,6 l/m #3:28 h #1:40 h 205 W/m 16,1 km/h (3 Bft) 97,05 %
© 2023 W. Hausmann